CW1648 Weather Reports


time (UTC)temp
C
wind
direction
speed
KPH
gust
KPH
rain 1hr
cm
rain 24hr
cm
rain mn
cm
humidity
%
barometer
mb
20260502170422 13 0 0.0 3.2 0.00 0.00 0.00 47 1009.3
20260502170334 13 0 0.0 3.2 0.00 0.00 0.00 48 1009.3
20260502170330 13 0 0.0 3.2 0.00 0.00 0.00 47 1009.3
20260502170152 13 0 0.0 3.2 0.00 0.00 0.00 45 1009.3
20260502170149 13 0 0.0 1.6 0.00 0.00 0.00 44 1009.3
20260502170143 13 0 0.0 3.2 0.00 0.00 0.00 47 1009.2
20260502164308 14 0 0.0 1.6 0.00 0.00 0.00 49 1009.5
20260502164207 14 0 0.0 1.6 0.00 0.00 0.00 48 1009.5
20260502164106 13 0 0.0 1.6 0.00 0.00 0.00 48 1009.5
20260502164021 13 360 0.0 1.6 0.00 0.00 0.00 47 1009.6
20260502164006 13 0 0.0 1.6 0.00 0.00 0.00 47 1009.6
20260502163922 13 0 0.0 1.6 0.00 0.00 0.00 47 1009.6
20260502163905 13 0 0.0 1.6 0.00 0.00 0.00 47 1009.5
20260502163804 13 0 0.0 4.8 0.00 0.00 0.00 47 1009.5
20260502163704 13 0 0.0 4.8 0.00 0.00 0.00 47 1009.4
20260502163604 13 0 0.0 6.4 0.00 0.00 0.00 46 1009.4
20260502163551 13 360 0.0 6.4 0.00 0.00 0.00 49 1009.5
20260502163518 13 0 0.0 6.4 0.00 0.00 0.00 49 1009.5
20260502163509 13 0 0.0 6.4 0.00 0.00 0.00 48 1009.5
20260502163303 13 0 0.0 6.4 0.00 0.00 0.00 50 1009.6
20260502163202 13 0 0.0 14.5 0.00 0.00 0.00 46 1009.5
20260502163102 13 0 0.0 14.5 0.00 0.00 0.00 46 1009.6
20260502163021 13 360 0.0 12.9 0.00 0.00 0.00 47 1009.6
20260502163001 13 0 0.0 14.5 0.00 0.00 0.00 47 1009.6
20260502162921 13 0 0.0 14.5 0.00 0.00 0.00 46 1009.6
20260502162901 13 0 0.0 14.5 0.00 0.00 0.00 45 1009.7
20260502162812 13 0 0.0 14.5 0.00 0.00 0.00 45 1009.7
20260502162808 13 0 0.0 14.5 0.00 0.00 0.00 45 1009.6
20260502162556 13 0 0.0 14.5 0.00 0.00 0.00 45 1009.7
20260502162521 13 360 0.0 12.9 0.00 0.00 0.00 45 1009.7
20260502162455 13 0 0.0 14.5 0.00 0.00 0.00 45 1009.7
20260502162419 13 0 0.0 14.5 0.00 0.00 0.00 45 1009.7
20260502162407 13 0 0.0 14.5 0.00 0.00 0.00 46 1009.8
20260502162403 13 0 0.0 14.5 0.00 0.00 0.00 46 1009.7
20260502162154 13 0 0.0 12.9 0.00 0.00 0.00 45 1009.8
20260502162053 13 0 0.0 12.9 0.00 0.00 0.00 46 1009.7
20260502162021 13 360 0.0 12.9 0.00 0.00 0.00 45 1009.7
20260502161953 13 0 0.0 6.4 0.00 0.00 0.00 45 1009.7
20260502161917 13 0 0.0 6.4 0.00 0.00 0.00 47 1009.7
20260502161852 13 0 0.0 6.4 0.00 0.00 0.00 47 1009.7
20260502161752 13 0 0.0 6.4 0.00 0.00 0.00 47 1009.7
20260502161651 13 0 0.0 6.4 0.00 0.00 0.00 47 1009.7
20260502161641 13 0 0.0 6.4 0.00 0.00 0.00 45 1009.7
20260502161551 13 0 0.0 6.4 0.00 0.00 0.00 49 1009.8
20260502161524 13 0 0.0 6.4 0.00 0.00 0.00 49 1009.7
20260502161521 13 360 0.0 6.4 0.00 0.00 0.00 49 1009.7
20260502161350 13 0 0.0 6.4 0.00 0.00 0.00 45 1009.8
20260502161250 13 0 0.0 6.4 0.00 0.00 0.00 46 1009.8
20260502161150 13 0 0.0 6.4 0.00 0.00 0.00 47 1009.8
20260502161048 13 0 0.0 6.4 0.00 0.00 0.00 48 1009.8
20260502161021 13 360 0.0 6.4 0.00 0.00 0.00 49 1009.8
20260502160948 13 0 0.0 6.4 0.00 0.00 0.00 49 1009.8
20260502160917 13 0 0.0 6.4 0.00 0.00 0.00 49 1009.8
20260502160909 13 0 0.0 6.4 0.00 0.00 0.00 49 1009.8
20260502160755 13 0 0.0 6.4 0.00 0.00 0.00 47 1009.9
20260502160636 13 0 0.0 6.4 0.00 0.00 0.00 48 1010.1
20260502160546 13 0 0.0 6.4 0.00 0.00 0.00 50 1010.1
20260502160523 13 0 0.0 6.4 0.00 0.00 0.00 48 1010.1
20260502160521 13 360 0.0 6.4 0.00 0.00 0.00 50 1010.1
20260502160345 13 0 0.0 1.6 0.00 0.00 0.00 47 1010.0
20260502160242 13 0 0.0 1.6 0.00 0.00 0.00 46 1010.0
20260502160143 13 0 0.0 1.6 0.00 0.00 0.00 46 1009.9
20260502152320 11 0 0.0 9.7 0.00 0.00 0.00 55 1009.1
20260502152219 11 0 0.0 9.7 0.00 0.00 0.00 56 1009.3
20260502152141 11 0 0.0 9.7 0.00 0.00 0.00 56 1009.5
20260502152119 11 0 0.0 9.7 0.00 0.00 0.00 56 1009.3
20260502152029 11 0 0.0 9.7 0.00 0.00 0.00 55 1009.7
20260502152021 11 360 0.0 9.7 0.00 0.00 0.00 55 1009.5
20260502151817 11 0 0.0 0.0 0.00 0.00 0.00 57 1009.5
20260502151730 11 0 0.0 0.0 0.00 0.00 0.00 55 1009.4
20260502151726 11 0 0.0 0.0 0.00 0.00 0.00 56 1009.8
20260502151521 11 360 0.0 0.0 0.00 0.00 0.00 55 1008.8
20260502151516 11 0 0.0 0.0 0.00 0.00 0.00 55 1008.7
20260502151419 11 0 0.0 0.0 0.00 0.00 0.00 56 1008.9
20260502151412 11 0 0.0 0.0 0.00 0.00 0.00 56 1008.9
20260502151316 11 0 0.0 0.0 0.00 0.00 0.00 58 1009.2
20260502151215 11 0 0.0 0.0 0.00 0.00 0.00 56 1009.1
20260502151114 11 0 0.0 0.0 0.00 0.00 0.00 56 1008.5
20260502151034 11 0 0.0 8.0 0.00 0.00 0.00 56 1008.9
20260502151029 11 0 0.0 0.0 0.00 0.00 0.00 56 1008.7
20260502151021 11 360 0.0 0.0 0.00 0.00 0.00 56 1008.9
20260502151016 11 0 0.0 0.0 0.00 0.00 0.00 55 1009.0
20260502150859 11 0 0.0 8.0 0.00 0.00 0.00 57 1009.2
20260502150853 11 0 0.0 8.0 0.00 0.00 0.00 55 1009.0
20260502150735 11 0 0.0 8.0 0.00 0.00 0.00 56 1009.2
20260502150521 11 360 0.0 8.0 0.00 0.00 0.00 57 1009.3
20260502150310 11 0 0.0 8.0 0.00 0.00 0.00 55 1009.1
20260502150210 11 0 0.0 8.0 0.00 0.00 0.00 55 1009.3
20260502150150 11 0 0.0 8.0 0.00 0.00 0.00 57 1009.2
20260502150145 11 0 0.0 8.0 0.00 0.00 0.00 55 1009.2
20260502130712 10 0 0.0 6.4 0.00 0.00 0.00 71 1010.1
20260502130612 10 0 0.0 6.4 0.00 0.00 0.00 72 1010.1
20260502130521 10 360 0.0 6.4 0.00 0.00 0.00 73 1010.1
20260502130512 10 0 0.0 6.4 0.00 0.00 0.00 73 1010.1
20260502130412 10 0 0.0 3.2 0.00 0.00 0.00 73 1010.3
20260502130351 10 0 0.0 3.2 0.00 0.00 0.00 73 1010.3
20260502130311 10 0 0.0 3.2 0.00 0.00 0.00 73 1010.3
20260502130211 10 0 0.0 3.2 0.00 0.00 0.00 72 1010.2
20260502130122 10 0 0.0 1.6 0.00 0.00 0.00 71 1010.2
20260502130118 10 0 0.0 1.6 0.00 0.00 0.00 72 1010.2
20260502123700 10 0 0.0 0.0 0.00 0.00 0.00 78 1009.7
20260502123611 10 0 0.0 0.0 0.00 0.00 0.00 77 1010.0
20260502123607 10 0 0.0 0.0 0.00 0.00 0.00 78 1009.7
20260502123521 10 360 0.0 0.0 0.00 0.00 0.00 77 1010.0
20260502123343 10 0 0.0 0.0 0.00 0.00 0.00 78 1010.1
20260502123257 10 0 0.0 0.0 0.00 0.00 0.00 78 1009.9
20260502123157 10 0 0.0 1.6 0.00 0.00 0.00 77 1010.2
20260502123109 10 0 0.0 1.6 0.00 0.00 0.00 77 1010.2
20260502123105 10 0 0.0 1.6 0.00 0.00 0.00 77 1010.2
20260502123022 10 360 0.0 1.6 0.00 0.00 0.00 77 1010.2
20260502122843 10 0 0.0 1.6 0.00 0.00 0.00 77 1010.3
20260502122755 10 0 0.0 1.6 0.00 0.00 0.00 77 1010.3
20260502122713 10 0 0.0 1.6 0.00 0.00 0.00 78 1010.1
20260502122600 10 0 0.0 1.6 0.00 0.00 0.00 78 1010.2
20260502122521 10 360 0.0 1.6 0.00 0.00 0.00 78 1010.0
20260502122351 10 0 0.0 1.6 0.00 0.00 0.00 79 1009.9
20260502122342 10 0 0.0 4.8 0.00 0.00 0.00 79 1009.9
20260502122249 10 0 0.0 6.4 0.00 0.00 0.00 80 1009.7
20260502122148 10 0 0.0 6.4 0.00 0.00 0.00 80 1009.8
20260502122107 10 0 0.0 6.4 0.00 0.00 0.00 80 1009.5
20260502122048 10 0 0.0 6.4 0.00 0.00 0.00 81 1010.1
20260502122021 10 360 0.0 6.4 0.00 0.00 0.00 81 1009.5
20260502121958 10 0 0.0 6.4 0.00 0.00 0.00 81 1009.5
20260502121948 10 0 0.0 6.4 0.00 0.00 0.00 80 1009.5
20260502121759 9 0 0.0 12.9 0.00 0.00 0.00 80 1010.3
20260502121754 10 0 0.0 12.9 0.00 0.00 0.00 80 1010.3
20260502121627 9 0 0.0 12.9 0.00 0.00 0.00 80 1010.3
20260502121621 9 0 0.0 12.9 0.00 0.00 0.00 80 1010.2
20260502121521 10 360 0.0 12.9 0.00 0.00 0.00 80 1010.3
20260502121508 9 0 0.0 12.9 0.00 0.00 0.00 80 1010.3
20260502121459 10 0 0.0 12.9 0.00 0.00 0.00 80 1010.3
20260502121143 9 0 0.0 12.9 0.00 0.00 0.00 80 1010.3
20260502121108 10 0 1.6 14.5 0.00 0.00 0.00 81 1010.4
20260502121042 10 0 0.0 12.9 0.00 0.00 0.00 80 1010.4
20260502121021 10 360 0.0 12.9 0.00 0.00 0.00 80 1010.4
20260502120956 10 0 1.6 12.9 0.00 0.00 0.00 80 1010.4
20260502120947 10 0 1.6 14.5 0.00 0.00 0.00 81 1010.4
20260502120741 10 0 1.6 14.5 0.00 0.00 0.00 81 1010.3
20260502120640 10 0 1.6 14.5 0.00 0.00 0.00 81 1010.2
20260502120539 10 0 1.6 14.5 0.00 0.00 0.00 81 1010.2
20260502120521 10 360 0.0 9.7 0.00 0.00 0.00 81 1010.2
20260502120440 10 0 1.6 14.5 0.00 0.00 0.00 81 1010.2
20260502120339 10 0 1.6 14.5 0.00 0.00 0.00 81 1010.1
20260502120239 10 0 1.6 14.5 0.00 0.00 0.00 81 1010.1
20260502120139 10 0 0.0 14.5 0.00 0.00 0.00 82 1010.1
20260502115837 10 0 0.0 1.6 0.00 0.00 0.00 83 1009.9
20260502115737 10 0 0.0 1.6 0.00 0.00 0.00 83 1010.0
20260502115635 10 0 0.0 4.8 0.00 0.00 0.00 83 1010.1
20260502115536 10 360 0.0 17.7 0.00 0.00 0.00 83 1010.4
20260502115435 10 0 0.0 17.7 0.00 0.00 0.00 83 1010.3
20260502115353 10 0 0.0 17.7 0.00 0.00 0.00 83 1010.2
20260502115343 10 0 0.0 17.7 0.00 0.00 0.00 83 1010.2
20260502115146 10 0 0.0 17.7 0.00 0.00 0.00 83 1010.2
20260502115142 10 0 0.0 17.7 0.00 0.00 0.00 83 1010.1
20260502115021 10 360 0.0 17.7 0.00 0.00 0.00 83 1010.3
20260502114933 10 0 1.6 17.7 0.00 0.00 0.00 83 1010.2
20260502114832 10 0 1.6 17.7 0.00 0.00 0.00 83 1010.2
20260502114732 10 0 1.6 17.7 0.00 0.00 0.00 83 1010.1
20260502114644 10 0 0.0 4.8 0.00 0.00 0.00 84 1010.0
20260502114640 10 0 0.0 17.7 0.00 0.00 0.00 83 1010.1
20260502114536 10 360 0.0 4.8 0.00 0.00 0.00 84 1010.1
20260502114428 10 0 0.0 4.8 0.00 0.00 0.00 84 1010.0
20260502114327 10 0 0.0 4.8 0.00 0.00 0.00 85 1010.0
20260502114240 10 0 0.0 8.0 0.00 0.00 0.00 85 1010.1
20260502114235 10 0 0.0 4.8 0.00 0.00 0.00 85 1010.1
20260502114036 10 360 0.0 8.0 0.00 0.00 0.00 85 1010.2
20260502114026 10 0 0.0 8.0 0.00 0.00 0.00 85 1010.1
20260502113925 10 0 0.0 8.0 0.00 0.00 0.00 85 1010.1
20260502113825 10 0 0.0 8.0 0.00 0.00 0.00 85 1010.1
20260502113725 10 0 0.0 8.0 0.00 0.00 0.00 85 1010.1
20260502113625 10 0 0.0 8.0 0.00 0.00 0.00 85 1010.1
20260502113523 10 0 0.0 8.0 0.00 0.00 0.00 85 1010.1
20260502113521 10 360 0.0 8.0 0.00 0.00 0.00 85 1010.2
20260502113423 10 0 0.0 8.0 0.00 0.00 0.00 85 1010.1
20260502113322 10 0 0.0 8.0 0.00 0.00 0.00 85 1010.1
20260502113222 10 0 0.0 8.0 0.00 0.00 0.00 85 1010.1
20260502113122 10 0 0.0 1.6 0.00 0.00 0.00 85 1010.0
20260502113022 10 0 0.0 1.6 0.00 0.00 0.00 85 1010.0
20260502112921 10 0 0.0 1.6 0.00 0.00 0.00 85 1009.9
20260502112820 10 0 0.0 0.0 0.00 0.00 0.00 85 1009.9
20260502112720 10 0 0.0 0.0 0.00 0.00 0.00 85 1009.9
20260502112619 10 0 0.0 0.0 0.00 0.00 0.00 85 1009.9
20260502112521 10 360 0.0 0.0 0.00 0.00 0.00 85 1010.0
20260502112518 10 0 0.0 0.0 0.00 0.00 0.00 85 1010.0
20260502112418 10 0 0.0 0.0 0.00 0.00 0.00 86 1009.9
20260502112317 10 0 0.0 4.8 0.00 0.00 0.00 86 1009.8
20260502112217 10 0 0.0 4.8 0.00 0.00 0.00 86 1009.8
20260502112117 10 0 0.0 4.8 0.00 0.00 0.00 86 1009.9
20260502112029 9 259 0.0 4.8 0.00 0.00 0.00 86 1009.8
20260502112025 10 344 0.0 4.8 0.00 0.00 0.00 86 1009.8
20260502112021 10 360 0.0 4.8 0.00 0.00 0.00 86 1009.9
20260502111833 9 259 0.0 4.8 0.00 0.00 0.00 86 1009.8
20260502111815 9 259 0.0 4.8 0.00 0.00 0.00 86 1009.8
20260502111715 9 290 0.0 6.4 0.00 0.00 0.00 86 1009.8
20260502111613 9 275 0.0 11.3 0.00 0.00 0.00 86 1009.8
20260502111527 9 242 0.0 11.3 0.00 0.00 0.00 86 1009.8
20260502111523 9 192 0.0 11.3 0.00 0.00 0.00 86 1009.8
20260502111521 9 184 0.0 11.3 0.00 0.00 0.00 86 1009.9
20260502111331 9 0 0.0 11.3 0.00 0.00 0.00 86 1009.7
20260502111326 9 0 0.0 11.3 0.00 0.00 0.00 86 1009.7
20260502111322 9 263 0.0 11.3 0.00 0.00 0.00 86 1009.7
20260502111125 9 241 0.0 11.3 0.00 0.00 0.00 86 1009.8
20260502111121 9 250 0.0 11.3 0.00 0.00 0.00 86 1009.8
20260502111021 9 241 0.0 11.3 0.00 0.00 0.00 86 1009.9
20260502110911 9 277 0.0 11.3 0.00 0.00 0.00 86 1009.8
20260502110832 9 0 0.0 11.3 0.00 0.00 0.00 86 1009.8
20260502110810 9 0 0.0 11.3 0.00 0.00 0.00 86 1009.8
20260502110709 9 229 0.0 11.3 0.00 0.00 0.00 86 1009.7
20260502110609 9 244 0.0 1.6 0.00 0.00 0.00 86 1009.7
20260502110536 9 242 0.0 0.0 0.00 0.00 0.00 86 1009.8
20260502110510 9 0 0.0 0.0 0.00 0.00 0.00 86 1009.7
20260502110428 9 244 0.0 0.0 0.00 0.00 0.00 86 1009.6
20260502110424 9 244 0.0 0.0 0.00 0.00 0.00 86 1009.7
20260502110416 9 244 0.0 0.0 0.00 0.00 0.00 86 1009.7
20260502110206 9 265 0.0 0.0 0.00 0.00 0.00 86 1009.7
20260502110106 9 266 0.0 0.0 0.00 0.00 0.00 86 1009.7
20260502110021 9 266 0.0 0.0 0.00 0.00 0.00 86 1009.8
20260502110007 9 266 0.0 0.0 0.00 0.00 0.00 86 1009.7
20260502105907 9 253 0.0 0.0 0.00 0.00 0.00 86 1009.7
20260502105832 9 253 0.0 0.0 0.00 0.00 0.00 86 1009.7
20260502105806 9 254 0.0 0.0 0.00 0.00 0.00 86 1009.6
20260502105727 9 254 0.0 0.0 0.00 0.00 0.00 86 1009.6
20260502105614 9 253 0.0 0.0 0.00 0.00 0.00 86 1009.6
20260502105521 9 261 0.0 0.0 0.00 0.00 0.00 86 1009.7
20260502105404 9 262 0.0 0.0 0.00 0.00 0.00 86 1009.6
20260502105330 9 262 0.0 0.0 0.00 0.00 0.00 86 1009.6
20260502105317 9 290 0.0 4.8 0.00 0.00 0.00 86 1009.6
20260502105313 9 262 0.0 4.8 0.00 0.00 0.00 86 1009.6
20260502105103 9 253 0.0 4.8 0.00 0.00 0.00 86 1009.5
20260502105036 9 273 0.0 4.8 0.00 0.00 0.00 86 1009.7
20260502105003 9 272 0.0 4.8 0.00 0.00 0.00 86 1009.6
20260502104901 9 0 0.0 4.8 0.00 0.00 0.00 86 1009.6
20260502104829 9 257 0.0 4.8 0.00 0.00 0.00 86 1009.6
20260502104800 9 257 0.0 6.4 0.00 0.00 0.00 87 1009.6
20260502104733 9 252 0.0 6.4 0.00 0.00 0.00 87 1009.6
20260502104621 9 0 0.0 6.4 0.00 0.00 0.00 87 1009.5
20260502104616 9 244 0.0 6.4 0.00 0.00 0.00 87 1009.6
20260502104521 9 194 0.0 6.4 0.00 0.00 0.00 87 1009.6
20260502104332 8 243 0.0 6.4 0.00 0.00 0.00 87 1009.5
20260502104328 9 261 0.0 6.4 0.00 0.00 0.00 87 1009.5
20260502104323 8 0 0.0 6.4 0.00 0.00 0.00 87 1009.5
20260502104317 8 250 0.0 6.4 0.00 0.00 0.00 87 1009.5
20260502104204 8 0 0.0 6.4 0.00 0.00 0.00 87 1009.5
20260502104155 8 246 0.0 6.4 0.00 0.00 0.00 87 1009.5
20260502104022 8 360 0.0 6.4 0.00 0.00 0.00 87 1009.6
20260502103753 8 271 0.0 1.6 0.00 0.00 0.00 88 1009.5
20260502103653 8 0 0.0 6.4 0.00 0.00 0.00 88 1009.5
20260502103552 8 0 0.0 6.4 0.00 0.00 0.00 88 1009.5
20260502103521 8 275 0.0 3.2 0.00 0.00 0.00 88 1009.6
20260502103452 8 275 0.0 6.4 0.00 0.00 0.00 88 1009.5
20260502103350 8 0 0.0 6.4 0.00 0.00 0.00 88 1009.5
20260502103328 8 280 0.0 6.4 0.00 0.00 0.00 88 1009.5
20260502103303 8 0 0.0 6.4 0.00 0.00 0.00 88 1009.5
20260502103258 8 280 0.0 6.4 0.00 0.00 0.00 88 1009.5
20260502103049 8 280 0.0 6.4 0.00 0.00 0.00 88 1009.5
20260502103021 8 360 0.0 3.2 0.00 0.00 0.00 88 1009.6
20260502102949 8 284 0.0 6.4 0.00 0.00 0.00 88 1009.5
20260502102847 8 262 0.0 6.4 0.00 0.00 0.00 88 1009.5
20260502102829 8 0 0.0 6.4 0.00 0.00 0.00 88 1009.5
20260502102822 8 262 0.0 6.4 0.00 0.00 0.00 88 1009.5
20260502102709 8 242 0.0 0.0 0.00 0.00 0.00 89 1009.5
20260502102555 8 243 0.0 3.2 0.00 0.00 0.00 89 1009.5
20260502102521 8 244 0.0 3.2 0.00 0.00 0.00 89 1009.6
20260502102434 8 244 0.0 3.2 0.00 0.00 0.00 89 1009.5
20260502102317 8 244 0.0 3.2 0.00 0.00 0.00 89 1009.5
20260502102312 8 244 0.0 3.2 0.00 0.00 0.00 89 1009.5
20260502102044 8 244 0.0 3.2 0.00 0.00 0.00 90 1009.5
20260502102037 8 244 0.0 3.2 0.00 0.00 0.00 90 1009.6
20260502101954 8 245 0.0 3.2 0.00 0.00 0.00 90 1009.5
20260502101950 8 0 0.0 3.2 0.00 0.00 0.00 90 1009.5
20260502101803 8 0 0.0 3.2 0.00 0.00 0.00 90 1009.5
20260502101650 8 244 0.0 3.2 0.00 0.00 0.00 90 1009.4
20260502101521 8 248 0.0 1.6 0.00 0.00 0.00 90 1009.6
20260502101441 8 248 0.0 0.0 0.00 0.00 0.00 90 1009.5
20260502101359 8 248 0.0 0.0 0.00 0.00 0.00 90 1009.5
20260502101353 8 248 0.0 0.0 0.00 0.00 0.00 90 1009.5
20260502101347 8 248 0.0 0.0 0.00 0.00 0.00 90 1009.5
20260502101151 8 290 0.0 0.0 0.00 0.00 0.00 90 1009.5
20260502101147 8 0 0.0 0.0 0.00 0.00 0.00 90 1009.5
20260502101021 8 360 0.0 0.0 0.00 0.00 0.00 90 1009.6
20260502100937 8 0 0.0 0.0 0.00 0.00 0.00 90 1009.5
20260502100837 8 0 0.0 0.0 0.00 0.00 0.00 90 1009.5
20260502100825 8 232 0.0 0.0 0.00 0.00 0.00 90 1009.5
20260502100749 8 261 0.0 0.0 0.00 0.00 0.00 90 1009.6
20260502100745 8 0 0.0 0.0 0.00 0.00 0.00 90 1009.5
20260502100534 8 263 0.0 0.0 0.00 0.00 0.00 90 1009.5
20260502100521 8 360 0.0 0.0 0.00 0.00 0.00 90 1009.6
20260502100446 8 236 0.0 0.0 0.00 0.00 0.00 90 1009.5
20260502100442 8 262 0.0 0.0 0.00 0.00 0.00 90 1009.5
20260502100325 8 236 0.0 0.0 0.00 0.00 0.00 90 1009.5
20260502100232 8 236 0.0 0.0 0.00 0.00 0.00 90 1009.5
20260502100132 8 0 0.0 0.0 0.00 0.00 0.00 90 1009.4
20260502100111 8 261 0.0 0.0 0.00 0.00 0.00 89 1009.4
20260502100106 8 236 0.0 0.0 0.00 0.00 0.00 89 1009.4
20260502091522 9 261 0.0 0.0 0.00 0.00 0.00 86 1009.5
20260502091505 9 261 0.0 0.0 0.00 0.00 0.00 86 1009.4
20260502091404 9 261 0.0 0.0 0.00 0.00 0.00 86 1009.3
20260502091303 9 261 0.0 0.0 0.00 0.00 0.00 86 1009.3
20260502091229 9 261 0.0 0.0 0.00 0.00 0.00 86 1009.2
20260502091116 9 261 0.0 0.0 0.00 0.00 0.00 86 1009.2
20260502091111 9 0 0.0 0.0 0.00 0.00 0.00 86 1009.2
20260502091021 9 261 0.0 0.0 0.00 0.00 0.00 86 1009.2
20260502090922 9 261 0.0 0.0 0.00 0.00 0.00 86 1009.2
20260502090800 9 0 0.0 0.0 0.00 0.00 0.00 86 1009.1
20260502090700 9 261 0.0 0.0 0.00 0.00 0.00 86 1009.1
20260502090558 9 261 0.0 0.0 0.00 0.00 0.00 86 1009.2
20260502090541 9 261 0.0 0.0 0.00 0.00 0.00 86 1009.2
20260502090537 9 261 0.0 0.0 0.00 0.00 0.00 86 1009.2
20260502090530 9 261 0.0 0.0 0.00 0.00 0.00 86 1009.2
20260502090521 9 261 0.0 0.0 0.00 0.00 0.00 86 1009.3
20260502090306 9 261 0.0 0.0 0.00 0.00 0.00 86 1009.2
20260502071522 10 261 0.0 0.0 0.00 0.00 0.00 84 1009.5
20260502071357 10 261 0.0 0.0 0.00 0.00 0.00 84 1009.5
20260502071255 10 261 0.0 0.0 0.00 0.00 0.00 84 1009.5
20260502071155 10 261 0.0 0.0 0.00 0.00 0.00 84 1009.5
20260502071053 10 261 0.0 0.0 0.00 0.00 0.00 84 1009.5
20260502071021 10 261 0.0 0.0 0.00 0.00 0.00 84 1009.6
20260502070953 10 261 0.0 0.0 0.00 0.00 0.00 84 1009.5
20260502070853 10 261 0.0 0.0 0.00 0.00 0.00 84 1009.6
20260502070810 10 261 0.0 0.0 0.00 0.00 0.00 84 1009.6
20260502070801 10 261 0.0 0.0 0.00 0.00 0.00 84 1009.6
20260502070551 10 261 0.0 0.0 0.00 0.00 0.00 85 1009.6
20260502070522 10 261 0.0 0.0 0.00 0.00 0.00 85 1009.7
20260502070448 10 261 0.0 0.0 0.00 0.00 0.00 85 1009.6
20260502070408 10 261 0.0 0.0 0.00 0.00 0.00 85 1009.6
20260502070402 10 261 0.0 0.0 0.00 0.00 0.00 85 1009.6
20260502070354 10 260 0.0 0.0 0.00 0.00 0.00 85 1009.6
20260502070148 10 261 0.0 0.0 0.00 0.00 0.00 85 1009.7
20260502070059 10 261 0.0 0.0 0.00 0.00 0.00 86 1009.6
20260502070055 10 261 0.0 0.0 0.00 0.00 0.00 86 1009.6
20260502070022 10 261 0.0 0.0 0.00 0.00 0.00 86 1009.7
20260502065845 10 261 0.0 0.0 0.00 0.00 0.00 86 1009.6
20260502065754 10 261 0.0 0.0 0.00 0.00 0.00 86 1009.6
20260502065745 10 0 0.0 0.0 0.00 0.00 0.00 86 1009.6
20260502065644 10 261 0.0 0.0 0.00 0.00 0.00 86 1009.5
20260502065544 10 261 0.0 0.0 0.00 0.00 0.00 86 1009.5
20260502065522 10 360 0.0 0.0 0.00 0.00 0.00 86 1009.6
20260502065441 10 261 0.0 3.2 0.00 0.00 0.00 86 1009.5
20260502065355 10 261 0.0 3.2 0.00 0.00 0.00 86 1009.6
20260502065346 10 261 0.0 3.2 0.00 0.00 0.00 86 1009.6
20260502065141 10 261 0.0 3.2 0.00 0.00 0.00 87 1009.5
20260502065041 10 261 0.0 3.2 0.00 0.00 0.00 87 1009.5
20260502065037 10 261 0.0 3.2 0.00 0.00 0.00 87 1009.6
20260502064939 10 262 0.0 3.2 0.00 0.00 0.00 87 1009.5
20260502064839 10 261 0.0 3.2 0.00 0.00 0.00 87 1009.6
20260502064757 10 261 0.0 3.2 0.00 0.00 0.00 87 1009.5
20260502064752 10 261 0.0 3.2 0.00 0.00 0.00 87 1009.5
20260502064747 10 0 0.0 3.2 0.00 0.00 0.00 87 1009.5
20260502064550 10 259 0.0 0.0 0.00 0.00 0.00 87 1009.5
20260502064546 10 261 0.0 3.2 0.00 0.00 0.00 87 1009.4
20260502064523 10 360 0.0 3.2 0.00 0.00 0.00 87 1009.6
20260502064336 10 261 0.0 0.0 0.00 0.00 0.00 87 1009.5
20260502064235 10 260 0.0 0.0 0.00 0.00 0.00 87 1009.5
20260502064135 10 0 0.0 0.0 0.00 0.00 0.00 87 1009.4
20260502064035 10 249 0.0 0.0 0.00 0.00 0.00 87 1009.4
20260502064022 10 250 0.0 0.0 0.00 0.00 0.00 87 1009.5
20260502063934 10 250 0.0 0.0 0.00 0.00 0.00 87 1009.4
20260502063834 10 183 0.0 0.0 0.00 0.00 0.00 87 1009.4
20260502063755 10 183 0.0 0.0 0.00 0.00 0.00 87 1009.4
20260502063641 10 183 0.0 0.0 0.00 0.00 0.00 87 1009.4
20260502063537 10 182 0.0 0.0 0.00 0.00 0.00 87 1009.5
20260502063459 10 182 0.0 0.0 0.00 0.00 0.00 86 1009.4
20260502063345 10 182 0.0 0.0 0.00 0.00 0.00 86 1009.5
20260502063336 10 182 0.0 0.0 0.00 0.00 0.00 86 1009.5
20260502063131 10 182 0.0 0.0 0.00 0.00 0.00 86 1009.5
20260502063031 10 182 0.0 0.0 0.00 0.00 0.00 86 1009.4
20260502063022 10 182 0.0 0.0 0.00 0.00 0.00 86 1009.5
20260502063017 10 182 0.0 0.0 0.00 0.00 0.00 85 1009.5
20260502063011 10 182 0.0 0.0 0.00 0.00 0.00 85 1009.5
20260502063006 10 182 0.0 0.0 0.00 0.00 0.00 86 1009.4
20260502062730 10 0 0.0 0.0 0.00 0.00 0.00 85 1009.5
20260502062627 10 182 0.0 0.0 0.00 0.00 0.00 85 1009.5
20260502062527 10 182 0.0 0.0 0.00 0.00 0.00 85 1009.5
20260502062523 10 182 0.0 0.0 0.00 0.00 0.00 85 1009.6
20260502062452 10 182 0.0 0.0 0.00 0.00 0.00 85 1009.5
20260502062339 10 182 0.0 0.0 0.00 0.00 0.00 85 1009.5
20260502062330 10 182 0.0 0.0 0.00 0.00 0.00 85 1009.5
20260502062136 10 182 0.0 0.0 0.00 0.00 0.00 85 1009.5
20260502062132 10 182 0.0 0.0 0.00 0.00 0.00 85 1009.5
20260502062022 10 182 0.0 0.0 0.00 0.00 0.00 85 1009.5
20260502061923 10 182 0.0 0.0 0.00 0.00 0.00 85 1009.4
20260502061823 10 182 0.0 0.0 0.00 0.00 0.00 85 1009.4
20260502061745 10 182 0.0 0.0 0.00 0.00 0.00 85 1009.4
20260502061723 10 182 0.0 0.0 0.00 0.00 0.00 84 1009.4
20260502061622 10 182 0.0 0.0 0.00 0.00 0.00 84 1009.4
20260502061552 10 182 0.0 0.0 0.00 0.00 0.00 84 1009.4
20260502061522 10 182 0.0 0.0 0.00 0.00 0.00 84 1009.5
20260502061452 10 182 0.0 0.0 0.00 0.00 0.00 84 1009.4
20260502061320 10 274 0.0 0.0 0.00 0.00 0.00 84 1009.4
20260502061219 10 274 0.0 0.0 0.00 0.00 0.00 84 1009.4
20260502061119 10 274 0.0 0.0 0.00 0.00 0.00 84 1009.4
20260502061022 10 274 0.0 0.0 0.00 0.00 0.00 84 1009.5
20260502061018 10 274 0.0 0.0 0.00 0.00 0.00 84 1009.4
20260502060917 10 274 0.0 0.0 0.00 0.00 0.00 84 1009.4
20260502060817 10 274 0.0 0.0 0.00 0.00 0.00 84 1009.4
20260502060745 10 274 0.0 0.0 0.00 0.00 0.00 84 1009.4
20260502060716 10 274 0.0 0.0 0.00 0.00 0.00 84 1009.4
20260502060616 10 274 0.0 0.0 0.00 0.00 0.00 84 1009.3
20260502060541 10 274 0.0 0.0 0.00 0.00 0.00 84 1009.3
20260502060537 10 274 0.0 0.0 0.00 0.00 0.00 85 1009.3
20260502060533 10 274 0.0 0.0 0.00 0.00 0.00 84 1009.3
20260502060521 10 274 0.0 0.0 0.00 0.00 0.00 84 1009.5
20260502060215 10 274 0.0 0.0 0.00 0.00 0.00 85 1009.3
20260502060115 10 274 0.0 0.0 0.00 0.00 0.00 85 1009.2
20260502060021 10 274 0.0 0.0 0.00 0.00 0.00 84 1009.5
20260502060014 10 274 0.0 0.0 0.00 0.00 0.00 84 1009.3
20260502055942 10 274 0.0 0.0 0.00 0.00 0.00 84 1009.3
20260502055829 10 274 0.0 0.0 0.00 0.00 0.00 84 1009.3
20260502055821 10 274 0.0 0.0 0.00 0.00 0.00 84 1009.3
20260502055614 10 274 0.0 0.0 0.00 0.00 0.00 84 1009.4
20260502055552 10 274 0.0 0.0 0.00 0.00 0.00 84 1009.5
20260502055524 10 274 0.0 0.0 0.00 0.00 0.00 84 1009.5
20260502055520 10 274 0.0 0.0 0.00 0.00 0.00 84 1009.4
20260502055310 10 274 0.0 0.0 0.00 0.00 0.00 84 1009.5
20260502055222 10 274 0.0 0.0 0.00 0.00 0.00 84 1009.5
20260502055218 10 274 0.0 0.0 0.00 0.00 0.00 84 1009.5
20260502055021 10 274 0.0 0.0 0.00 0.00 0.00 84 1009.6
20260502055008 10 274 0.0 0.0 0.00 0.00 0.00 84 1009.5
20260502054908 10 274 0.0 0.0 0.00 0.00 0.00 83 1009.5
20260502054807 10 274 0.0 0.0 0.00 0.00 0.00 83 1009.5
20260502054741 10 274 0.0 0.0 0.00 0.00 0.00 83 1009.5
20260502054705 10 274 0.0 0.0 0.00 0.00 0.00 83 1009.5
20260502054605 10 274 0.0 0.0 0.00 0.00 0.00 83 1009.5
20260502054522 10 274 0.0 0.0 0.00 0.00 0.00 83 1009.6
20260502054506 10 274 0.0 0.0 0.00 0.00 0.00 83 1009.5
20260502054405 10 274 0.0 0.0 0.00 0.00 0.00 83 1009.5
20260502054322 10 274 0.0 0.0 0.00 0.00 0.00 82 1009.5
20260502054318 10 274 0.0 0.0 0.00 0.00 0.00 83 1009.5
20260502054310 10 274 0.0 0.0 0.00 0.00 0.00 83 1009.5
20260502054103 10 274 0.0 0.0 0.00 0.00 0.00 82 1009.5
20260502054022 10 274 0.0 0.0 0.00 0.00 0.00 82 1009.7
20260502054003 10 0 0.0 0.0 0.00 0.00 0.00 82 1009.6
20260502053915 10 274 0.0 0.0 0.00 0.00 0.00 81 1009.6
20260502053911 10 274 0.0 0.0 0.00 0.00 0.00 81 1009.6
20260502053739 10 0 0.0 0.0 0.00 0.00 0.00 81 1009.6
20260502053702 10 274 0.0 0.0 0.00 0.00 0.00 81 1009.7
20260502053601 10 274 0.0 0.0 0.00 0.00 0.00 81 1009.7
20260502053521 10 274 0.0 0.0 0.00 0.00 0.00 81 1009.8
20260502053504 10 274 0.0 0.0 0.00 0.00 0.00 81 1009.7
20260502053500 10 274 0.0 0.0 0.00 0.00 0.00 81 1009.7
20260502053400 10 273 0.0 0.0 0.00 0.00 0.00 81 1009.7
20260502053347 10 273 0.0 0.0 0.00 0.00 0.00 81 1009.7
20260502053158 10 274 0.0 0.0 0.00 0.00 0.00 81 1009.7
20260502053058 10 274 0.0 0.0 0.00 0.00 0.00 80 1009.7
20260502053023 10 274 0.0 0.0 0.00 0.00 0.00 80 1009.8
20260502052958 10 274 0.0 0.0 0.00 0.00 0.00 80 1009.7
20260502052858 10 274 0.0 0.0 0.00 0.00 0.00 80 1009.7
20260502052738 10 274 0.0 0.0 0.00 0.00 0.00 80 1009.7
20260502052656 10 274 0.0 0.0 0.00 0.00 0.00 80 1009.8
20260502052556 10 274 0.0 0.0 0.00 0.00 0.00 80 1009.7
20260502052522 11 274 0.0 0.0 0.00 0.00 0.00 80 1009.8
20260502052455 10 274 0.0 0.0 0.00 0.00 0.00 80 1009.7
20260502052352 11 274 0.0 0.0 0.00 0.00 0.00 80 1009.8
20260502052236 11 274 0.0 0.0 0.00 0.00 0.00 80 1009.7
20260502052152 11 274 0.0 0.0 0.00 0.00 0.00 80 1009.8
20260502052050 11 274 0.0 0.0 0.00 0.00 0.00 80 1009.8
20260502052022 11 273 0.0 0.0 0.00 0.00 0.00 80 1009.9
20260502051950 11 273 0.0 0.0 0.00 0.00 0.00 80 1009.8
20260502051850 11 274 0.0 0.0 0.00 0.00 0.00 79 1009.9
20260502051750 11 0 0.0 0.0 0.00 0.00 0.00 79 1009.9
20260502051736 11 273 0.0 0.0 0.00 0.00 0.00 79 1009.9
20260502051717 11 274 0.0 0.0 0.00 0.00 0.00 78 1009.9
20260502051713 11 274 0.0 0.0 0.00 0.00 0.00 78 1009.9
20260502051707 11 274 0.0 0.0 0.00 0.00 0.00 79 1009.9
20260502051521 11 274 0.0 0.0 0.00 0.00 0.00 78 1010.0
20260502051401 11 274 0.0 0.0 0.00 0.00 0.00 78 1009.8
20260502051356 11 0 0.0 0.0 0.00 0.00 0.00 78 1009.9
20260502051234 11 274 0.0 0.0 0.00 0.00 0.00 78 1009.8
20260502051147 11 273 0.0 0.0 0.00 0.00 0.00 78 1009.8
20260502051046 11 0 0.0 0.0 0.00 0.00 0.00 77 1009.7
20260502051022 11 274 0.0 0.0 0.00 0.00 0.00 77 1009.9
20260502051010 11 274 0.0 0.0 0.00 0.00 0.00 78 1009.7
20260502051004 11 274 0.0 0.0 0.00 0.00 0.00 78 1009.7
20260502051000 11 273 0.0 0.0 0.00 0.00 0.00 77 1009.8
20260502050842 11 274 0.0 0.0 0.00 0.00 0.00 78 1009.7
20260502050645 11 274 0.0 0.0 0.00 0.00 0.00 78 1009.6
20260502050544 11 274 0.0 0.0 0.00 0.00 0.00 78 1009.6
20260502050521 11 274 0.0 0.0 0.00 0.00 0.00 78 1009.8
20260502050444 11 273 0.0 0.0 0.00 0.00 0.00 78 1009.7
20260502050343 11 274 0.0 0.0 0.00 0.00 0.00 77 1009.7
20260502050232 11 275 0.0 0.0 0.00 0.00 0.00 77 1009.6
20260502050142 11 274 0.0 0.0 0.00 0.00 0.00 77 1009.6
20260502050041 11 275 0.0 0.0 0.00 0.00 0.00 77 1009.7
20260502050022 11 275 0.0 0.0 0.00 0.00 0.00 78 1009.7
20260502045940 11 274 0.0 0.0 0.00 0.00 0.00 77 1009.7
20260502045840 11 274 0.0 0.0 0.00 0.00 0.00 77 1009.7
20260502045732 11 275 0.0 0.0 0.00 0.00 0.00 77 1009.7
20260502045639 11 274 0.0 0.0 0.00 0.00 0.00 77 1009.7
20260502045552 11 275 0.0 0.0 0.00 0.00 0.00 77 1009.6
20260502045537 11 0 0.0 0.0 0.00 0.00 0.00 77 1009.6
20260502045436 11 275 0.0 0.0 0.00 0.00 0.00 77 1009.6
20260502045334 11 274 0.0 0.0 0.00 0.00 0.00 77 1009.6
20260502045230 11 274 0.0 0.0 0.00 0.00 0.00 76 1009.5
20260502045147 11 274 0.0 0.0 0.00 0.00 0.00 76 1009.6
20260502045143 11 274 0.0 0.0 0.00 0.00 0.00 76 1009.6
20260502045022 11 274 0.0 0.0 0.00 0.00 0.00 76 1009.7
20260502044933 11 275 0.0 0.0 0.00 0.00 0.00 76 1009.7
20260502044849 11 274 0.0 0.0 0.00 0.00 0.00 76 1009.7
20260502044844 11 274 0.0 0.0 0.00 0.00 0.00 76 1009.7
20260502044729 11 274 0.0 0.0 0.00 0.00 0.00 76 1009.7
20260502044632 11 274 0.0 0.0 0.00 0.00 0.00 75 1009.7
20260502044531 11 274 0.0 0.0 0.00 0.00 0.00 75 1009.7
20260502044522 11 274 0.0 0.0 0.00 0.00 0.00 75 1009.8
20260502044430 11 275 0.0 0.0 0.00 0.00 0.00 75 1009.8
20260502044330 11 275 0.0 0.0 0.00 0.00 0.00 75 1009.8
20260502044230 11 274 0.0 0.0 0.00 0.00 0.00 75 1009.7
20260502044130 11 274 0.0 0.0 0.00 0.00 0.00 76 1009.8
20260502044028 11 274 0.0 0.0 0.00 0.00 0.00 76 1009.7
20260502044021 11 274 0.0 0.0 0.00 0.00 0.00 76 1009.8
20260502043952 11 274 0.0 0.0 0.00 0.00 0.00 75 1009.9
20260502043928 11 274 0.0 0.0 0.00 0.00 0.00 76 1009.8
20260502043842 11 274 0.0 0.0 0.00 0.00 0.00 76 1009.8
20260502043727 11 275 0.0 0.0 0.00 0.00 0.00 75 1009.9
20260502043626 11 274 0.0 0.0 0.00 0.00 0.00 75 1009.8
20260502043552 11 275 0.0 0.0 0.00 0.00 0.00 74 1009.9
20260502043548 11 275 0.0 0.0 0.00 0.00 0.00 74 1009.8
20260502043543 11 274 0.0 0.0 0.00 0.00 0.00 74 1009.8
20260502043522 11 275 0.0 0.0 0.00 0.00 0.00 74 1009.9
20260502043224 11 275 0.0 0.0 0.00 0.00 0.00 74 1009.8
20260502043136 11 275 0.0 0.0 0.00 0.00 0.00 74 1009.8
20260502043132 11 275 0.0 0.0 0.00 0.00 0.00 74 1009.8
20260502043023 11 274 0.0 0.0 0.00 0.00 0.00 74 1009.7
20260502042922 11 274 0.0 0.0 0.00 0.00 0.00 73 1009.7
20260502042821 11 275 0.0 0.0 0.00 0.00 0.00 73 1009.6
20260502042721 11 275 0.0 0.0 0.00 0.00 0.00 73 1009.6
20260502042621 11 274 0.0 0.0 0.00 0.00 0.00 72 1009.6
20260502042605 11 274 0.0 0.0 0.00 0.00 0.00 72 1009.6
20260502042601 11 274 0.0 0.0 0.00 0.00 0.00 72 1009.6
20260502042557 11 274 0.0 0.0 0.00 0.00 0.00 72 1009.6
20260502042552 11 274 0.0 0.0 0.00 0.00 0.00 72 1009.6
20260502042522 11 274 0.0 0.0 0.00 0.00 0.00 72 1009.6
20260502042219 11 274 0.0 0.0 0.00 0.00 0.00 72 1009.6
20260502042118 11 0 0.0 0.0 0.00 0.00 0.00 71 1009.6
20260502042022 11 274 0.0 0.0 0.00 0.00 0.00 71 1009.6
20260502042017 11 275 0.0 0.0 0.00 0.00 0.00 71 1009.6
20260502041917 11 274 0.0 0.0 0.00 0.00 0.00 71 1009.6
20260502041857 11 275 0.0 0.0 0.00 0.00 0.00 71 1009.6
20260502041852 11 274 0.0 0.0 0.00 0.00 0.00 71 1009.6
20260502041733 11 274 0.0 0.0 0.00 0.00 0.00 71 1009.6
20260502041537 11 274 0.0 0.0 0.00 0.00 0.00 72 1009.5
20260502041413 11 274 0.0 0.0 0.00 0.00 0.00 72 1009.5
20260502041312 11 275 0.0 0.0 0.00 0.00 0.00 72 1009.6
20260502041244 11 274 0.0 0.0 0.00 0.00 0.00 71 1009.6
20260502041240 11 0 0.0 0.0 0.00 0.00 0.00 71 1009.6
20260502041229 11 275 0.0 0.0 0.00 0.00 0.00 71 1009.5
20260502041021 11 274 0.0 0.0 0.00 0.00 0.00 71 1009.6
20260502040911 11 274 0.0 0.0 0.00 0.00 0.00 71 1009.5
20260502040810 11 274 0.0 0.0 0.00 0.00 0.00 71 1009.5
20260502040710 11 274 0.0 0.0 0.00 0.00 0.00 70 1009.5
20260502040608 11 281 0.0 3.2 0.00 0.00 0.00 70 1009.4
20260502040537 11 281 0.0 3.2 0.00 0.00 0.00 70 1009.4
20260502040508 11 281 0.0 3.2 0.00 0.00 0.00 70 1009.4
20260502040408 11 281 0.0 3.2 0.00 0.00 0.00 71 1009.4
20260502040306 11 281 0.0 3.2 0.00 0.00 0.00 71 1009.4
20260502040206 11 281 0.0 3.2 0.00 0.00 0.00 71 1009.4
20260502040105 12 281 0.0 3.2 0.00 0.00 0.00 71 1009.4
20260502040022 12 281 0.0 3.2 0.00 0.00 0.00 71 1009.4
20260502040005 12 281 0.0 3.2 0.00 0.00 0.00 71 1009.4
20260502035904 12 281 0.0 3.2 0.00 0.00 0.00 71 1009.4
20260502035802 12 281 0.0 3.2 0.00 0.00 0.00 70 1009.4
20260502035719 12 281 0.0 3.2 0.00 0.00 0.00 70 1009.4
20260502035702 12 281 0.0 3.2 0.00 0.00 0.00 70 1009.4
20260502035602 12 158 0.0 0.0 0.00 0.00 0.00 70 1009.4
20260502035522 12 158 0.0 0.0 0.00 0.00 0.00 69 1009.4
20260502035501 12 158 0.0 0.0 0.00 0.00 0.00 69 1009.4
20260502035401 12 158 0.0 0.0 0.00 0.00 0.00 69 1009.3
20260502035258 12 158 0.0 0.0 0.00 0.00 0.00 69 1009.3
20260502035217 12 158 0.0 0.0 0.00 0.00 0.00 69 1009.3
20260502035159 12 158 0.0 0.0 0.00 0.00 0.00 69 1009.3
20260502035058 12 158 0.0 0.0 0.00 0.00 0.00 69 1009.3
20260502035022 12 158 0.0 0.0 0.00 0.00 0.00 69 1009.3
20260502034958 12 159 0.0 0.0 0.00 0.00 0.00 69 1009.3
20260502034911 12 158 0.0 0.0 0.00 0.00 0.00 68 1009.3
20260502034906 12 158 0.0 0.0 0.00 0.00 0.00 69 1009.3
20260502034716 12 157 0.0 1.6 0.00 0.00 0.00 68 1009.3
20260502034710 12 176 0.0 1.6 0.00 0.00 0.00 68 1009.1
20260502034705 12 157 0.0 1.6 0.00 0.00 0.00 68 1009.2
20260502034521 12 175 0.0 1.6 0.00 0.00 0.00 67 1009.1
20260502034456 12 175 0.0 1.6 0.00 0.00 0.00 67 1009.1
20260502034441 12 164 0.0 1.6 0.00 0.00 0.00 67 1009.1
20260502034354 12 175 0.0 1.6 0.00 0.00 0.00 67 1009.1
20260502034326 12 163 0.0 1.6 0.00 0.00 0.00 67 1009.1
20260502034206 12 163 0.0 1.6 0.00 0.00 0.00 67 1009.0
20260502034202 12 164 0.0 1.6 0.00 0.00 0.00 67 1009.1
20260502034022 12 162 0.0 1.6 0.00 0.00 0.00 67 1009.0
20260502033952 12 162 0.0 1.6 0.00 0.00 0.00 67 1009.0
20260502033852 12 162 0.0 1.6 0.00 0.00 0.00 68 1009.0
20260502033752 12 234 0.0 1.6 0.00 0.00 0.00 67 1009.0
20260502033715 12 234 0.0 0.0 0.00 0.00 0.00 67 1008.9
20260502033650 12 234 0.0 0.0 0.00 0.00 0.00 67 1008.9
20260502033602 12 234 0.0 0.0 0.00 0.00 0.00 67 1009.0
20260502033558 12 234 0.0 0.0 0.00 0.00 0.00 67 1008.9
20260502033552 12 234 0.0 0.0 0.00 0.00 0.00 67 1009.0
20260502033347 12 234 0.0 3.2 0.00 0.00 0.00 67 1009.0
20260502033247 12 0 0.0 6.4 0.00 0.00 0.00 66 1009.0
20260502033213 12 234 0.0 6.4 0.00 0.00 0.00 67 1009.1
20260502033146 12 234 0.0 6.4 0.00 0.00 0.00 67 1009.1
20260502033047 12 234 0.0 6.4 0.00 0.00 0.00 66 1009.1
20260502033022 12 234 0.0 6.4 0.00 0.00 0.00 66 1009.1
20260502032947 12 234 0.0 6.4 0.00 0.00 0.00 66 1009.1
20260502032846 12 190 0.0 6.4 0.00 0.00 0.00 66 1009.1
20260502032746 12 190 0.0 6.4 0.00 0.00 0.00 66 1009.2
20260502032712 12 190 0.0 6.4 0.00 0.00 0.00 66 1009.2
20260502032643 12 190 0.0 6.4 0.00 0.00 0.00 66 1009.2
20260502032543 12 190 0.0 6.4 0.00 0.00 0.00 66 1009.3
20260502032522 12 190 0.0 6.4 0.00 0.00 0.00 66 1009.3
20260502032442 12 190 0.0 6.4 0.00 0.00 0.00 66 1009.3
20260502032341 12 188 0.0 6.4 0.00 0.00 0.00 66 1009.2
20260502032213 12 182 0.0 3.2 0.00 0.00 0.00 66 1009.2
20260502032205 12 181 0.0 11.3 0.00 0.00 0.00 66 1009.2
20260502032052 12 181 0.0 11.3 0.00 0.00 0.00 66 1009.2
20260502032022 12 181 0.0 8.0 0.00 0.00 0.00 66 1009.1
20260502031935 12 178 0.0 11.3 0.00 0.00 0.00 65 1009.1
20260502031839 12 178 0.0 11.3 0.00 0.00 0.00 65 1009.1
20260502031820 12 178 0.0 11.3 0.00 0.00 0.00 65 1009.1
20260502031635 12 171 0.0 11.3 0.00 0.00 0.00 65 1009.1
20260502031548 12 169 0.0 11.3 0.00 0.00 0.00 65 1009.1
20260502031544 12 0 0.0 11.3 0.00 0.00 0.00 65 1009.1
20260502031521 12 171 0.0 8.0 0.00 0.00 0.00 65 1009.1
20260502031334 12 183 0.0 11.3 0.00 0.00 0.00 65 1009.2
20260502031232 12 192 0.0 11.3 0.00 0.00 0.00 65 1009.1
20260502031211 12 144 0.0 11.3 0.00 0.00 0.00 65 1009.2
20260502031133 12 167 0.0 1.6 0.00 0.00 0.00 64 1009.2
20260502031032 12 167 0.0 1.6 0.00 0.00 0.00 64 1009.2
20260502031022 12 167 0.0 1.6 0.00 0.00 0.00 64 1009.2
20260502030934 12 167 0.0 1.6 0.00 0.00 0.00 64 1009.2
20260502030927 12 160 0.0 8.0 0.00 0.00 0.00 64 1009.2
20260502030831 12 166 0.0 1.6 0.00 0.00 0.00 64 1009.2
20260502030818 12 194 0.0 8.0 0.00 0.00 0.00 64 1009.2
20260502030630 12 186 0.0 8.0 0.00 0.00 0.00 63 1009.2
20260502030552 12 192 0.0 8.0 0.00 0.00 0.00 63 1009.1
20260502030530 12 181 0.0 8.0 0.00 0.00 0.00 63 1009.2
20260502030430 12 192 0.0 8.0 0.00 0.00 0.00 63 1009.1
20260502030342 12 155 0.0 8.0 0.00 0.00 0.00 63 1009.3
20260502030338 12 179 0.0 8.0 0.00 0.00 0.00 63 1009.2
20260502030211 12 165 0.0 8.0 0.00 0.00 0.00 63 1009.3
20260502030129 12 203 0.0 8.0 0.00 0.00 0.00 62 1009.3
20260502030027 12 160 0.0 8.0 0.00 0.00 0.00 62 1009.4
20260502030022 12 144 0.0 8.0 0.00 0.00 0.00 62 1009.4
20260502025927 12 156 0.0 8.0 0.00 0.00 0.00 62 1009.4
20260502025840 12 180 0.0 6.4 0.00 0.00 0.00 62 1009.3
20260502025836 12 175 0.0 8.0 0.00 0.00 0.00 62 1009.3
20260502025710 12 180 0.0 6.4 0.00 0.00 0.00 62 1009.2
20260502025626 12 182 0.0 6.4 0.00 0.00 0.00 62 1009.2
20260502025537 12 190 0.0 6.4 0.00 0.00 0.00 61 1009.1
20260502025526 12 190 0.0 6.4 0.00 0.00 0.00 61 1009.1
20260502025443 12 164 0.0 0.0 0.00 0.00 0.00 61 1009.2
20260502025439 12 161 0.0 0.0 0.00 0.00 0.00 61 1009.3
20260502025435 12 160 0.0 0.0 0.00 0.00 0.00 61 1009.1
20260502025316 12 180 0.0 0.0 0.00 0.00 0.00 61 1009.3
20260502025123 12 176 0.0 0.0 0.00 0.00 0.00 61 1009.3
20260502025040 12 157 0.0 0.0 0.00 0.00 0.00 61 1009.3
20260502025038 12 162 0.0 0.0 0.00 0.00 0.00 61 1009.3
20260502025036 12 180 0.0 0.0 0.00 0.00 0.00 60 1009.2
20260502025032 12 162 0.0 0.0 0.00 0.00 0.00 61 1009.3
20260502024847 12 180 0.0 0.0 0.00 0.00 0.00 60 1009.2
20260502024842 12 148 0.0 0.0 0.00 0.00 0.00 61 1009.3
20260502024833 12 180 0.0 0.0 0.00 0.00 0.00 60 1009.3
20260502024522 12 180 0.0 0.0 0.00 0.00 0.00 60 1009.3
20260502024518 12 180 0.0 0.0 0.00 0.00 0.00 60 1009.3
20260502024415 12 170 0.0 0.0 0.00 0.00 0.00 61 1009.3
20260502024315 12 169 0.0 0.0 0.00 0.00 0.00 61 1009.3
20260502024210 13 169 0.0 0.0 0.00 0.00 0.00 60 1009.4
20260502024115 13 169 0.0 0.0 0.00 0.00 0.00 60 1009.4
20260502024022 13 169 0.0 0.0 0.00 0.00 0.00 60 1009.5
20260502024015 13 169 0.0 0.0 0.00 0.00 0.00 60 1009.5
20260502023937 13 169 0.0 0.0 0.00 0.00 0.00 60 1009.5
20260502023931 13 169 0.0 0.0 0.00 0.00 0.00 60 1009.4
20260502023922 13 169 0.0 0.0 0.00 0.00 0.00 60 1009.5
20260502023613 13 169 0.0 0.0 0.00 0.00 0.00 59 1009.5
20260502023541 13 169 0.0 0.0 0.00 0.00 0.00 59 1009.5
20260502023537 13 169 0.0 0.0 0.00 0.00 0.00 59 1009.6
20260502023532 13 169 0.0 0.0 0.00 0.00 0.00 59 1009.5
20260502023522 13 169 0.0 0.0 0.00 0.00 0.00 59 1009.5
20260502023212 13 201 0.0 0.0 0.00 0.00 0.00 59 1009.6
20260502023206 13 0 0.0 0.0 0.00 0.00 0.00 59 1009.6
20260502023112 13 201 0.0 0.0 0.00 0.00 0.00 59 1009.6
20260502023024 13 190 0.0 0.0 0.00 0.00 0.00 59 1009.6
20260502023020 13 203 0.0 0.0 0.00 0.00 0.00 59 1009.6
20260502022810 13 163 0.0 1.6 0.00 0.00 0.00 58 1009.6
20260502022803 13 178 0.0 1.6 0.00 0.00 0.00 58 1009.5
20260502022759 13 178 0.0 1.6 0.00 0.00 0.00 58 1009.6
20260502022752 13 149 0.0 1.6 0.00 0.00 0.00 58 1009.6
20260502022745 13 172 0.0 1.6 0.00 0.00 0.00 58 1009.6
20260502022633 13 178 0.0 1.6 0.00 0.00 0.00 58 1009.6
20260502022522 13 178 0.0 1.6 0.00 0.00 0.00 58 1009.5
20260502022207 13 178 0.0 1.6 0.00 0.00 0.00 58 1009.5
20260502022105 13 171 0.0 1.6 0.00 0.00 0.00 58 1009.5
20260502022022 13 163 0.0 1.6 0.00 0.00 0.00 58 1009.5
20260502022005 13 163 0.0 1.6 0.00 0.00 0.00 58 1009.5
20260502021904 13 163 0.0 1.6 0.00 0.00 0.00 57 1009.5
20260502021836 13 163 0.0 1.6 0.00 0.00 0.00 57 1009.7
20260502021832 13 169 0.0 1.6 0.00 0.00 0.00 57 1009.7
20260502021826 13 153 0.0 1.6 0.00 0.00 0.00 58 1009.6
20260502021713 13 163 0.0 1.6 0.00 0.00 0.00 57 1009.7
20260502021522 13 182 0.0 0.0 0.00 0.00 0.00 57 1009.7
20260502021500 13 172 0.0 1.6 0.00 0.00 0.00 57 1009.7
20260502021414 13 0 0.0 1.6 0.00 0.00 0.00 57 1009.7
20260502021410 13 163 0.0 1.6 0.00 0.00 0.00 58 1009.7
20260502021205 13 130 0.0 1.6 0.00 0.00 0.00 57 1009.7
20260502021200 13 0 0.0 1.6 0.00 0.00 0.00 57 1009.7
20260502021059 13 198 0.0 1.6 0.00 0.00 0.00 58 1009.7
20260502021022 13 178 0.0 1.6 0.00 0.00 0.00 58 1009.6
20260502020959 13 178 0.0 1.6 0.00 0.00 0.00 58 1009.6
20260502020859 13 179 0.0 1.6 0.00 0.00 0.00 58 1009.6
20260502020757 13 172 0.0 4.8 0.00 0.00 0.00 58 1009.6
20260502020658 13 0 0.0 4.8 0.00 0.00 0.00 58 1009.6
20260502020557 13 132 0.0 4.8 0.00 0.00 0.00 58 1009.5
20260502020522 13 132 0.0 4.8 0.00 0.00 0.00 57 1009.5
20260502020456 13 132 0.0 4.8 0.00 0.00 0.00 57 1009.5
20260502020422 13 151 0.0 4.8 0.00 0.00 0.00 57 1009.5
20260502020309 13 160 0.0 4.8 0.00 0.00 0.00 58 1009.4
20260502020300 13 176 0.0 8.0 0.00 0.00 0.00 57 1009.4
20260502020054 13 176 0.0 8.0 0.00 0.00 0.00 58 1009.5
20260502020022 13 175 0.0 8.0 0.00 0.00 0.00 58 1009.5
20260502015954 13 188 0.0 8.0 0.00 0.00 0.00 58 1009.5
20260502015852 13 188 0.0 8.0 0.00 0.00 0.00 57 1009.4
20260502015752 13 194 0.0 8.0 0.00 0.00 0.00 57 1009.5
20260502015711 13 198 0.0 8.0 0.00 0.00 0.00 57 1009.5
20260502015706 13 194 0.0 8.0 0.00 0.00 0.00 57 1009.5
20260502015700 13 0 0.0 8.0 0.00 0.00 0.00 58 1009.5
20260502015522 13 192 0.0 8.0 0.00 0.00 0.00 57 1009.4
20260502015449 13 192 0.0 8.0 0.00 0.00 0.00 57 1009.4
20260502015349 13 213 0.0 8.0 0.00 0.00 0.00 58 1009.4
20260502015249 13 180 0.0 6.4 0.00 0.00 0.00 58 1009.4
20260502015156 13 176 0.0 6.4 0.00 0.00 0.00 57 1009.4
20260502015148 12 176 0.0 6.4 0.00 0.00 0.00 58 1009.4
20260502015048 12 173 0.0 6.4 0.00 0.00 0.00 58 1009.4
20260502015022 12 205 0.0 4.8 0.00 0.00 0.00 58 1009.3
20260502014947 12 187 0.0 6.4 0.00 0.00 0.00 58 1009.3
20260502014846 12 143 0.0 6.4 0.00 0.00 0.00 58 1009.1
20260502014746 12 165 0.0 6.4 0.00 0.00 0.00 58 1009.1
20260502014657 12 0 0.0 4.8 0.00 0.00 0.00 58 1009.1
20260502014646 12 160 0.0 4.8 0.00 0.00 0.00 58 1009.1
20260502014546 12 176 0.0 4.8 0.00 0.00 0.00 58 1009.1
20260502014522 12 171 0.0 4.8 0.00 0.00 0.00 58 1009.2
20260502014445 12 136 0.0 4.8 0.00 0.00 0.00 58 1009.2
20260502014345 12 209 0.0 4.8 0.00 0.00 0.00 58 1009.3
20260502014243 12 160 0.0 1.6 0.00 0.00 0.00 58 1009.3
20260502014157 12 168 0.0 1.6 0.00 0.00 0.00 59 1009.3
20260502014143 12 179 0.0 1.6 0.00 0.00 0.00 59 1009.3
20260502014042 12 200 0.0 1.6 0.00 0.00 0.00 59 1009.3
20260502014037 12 200 0.0 1.6 0.00 0.00 0.00 59 1009.4
20260502013953 12 174 0.0 1.6 0.00 0.00 0.00 59 1009.4
20260502013949 12 203 0.0 1.6 0.00 0.00 0.00 59 1009.4
20260502013740 12 173 0.0 1.6 0.00 0.00 0.00 59 1009.3
20260502013639 12 192 0.0 0.0 0.00 0.00 0.00 60 1009.3
20260502013540 12 194 0.0 0.0 0.00 0.00 0.00 60 1009.3
20260502013531 11 123 0.0 0.0 0.00 0.00 0.00 60 1009.2
20260502013522 12 360 0.0 0.0 0.00 0.00 0.00 60 1009.2
20260502013418 11 186 0.0 0.0 0.00 0.00 0.00 61 1009.1
20260502013412 11 171 0.0 0.0 0.00 0.00 0.00 60 1009.2
20260502013135 11 202 0.0 0.0 0.00 0.00 0.00 61 1009.1
20260502013035 11 189 0.0 0.0 0.00 0.00 0.00 61 1009.1
20260502013022 11 189 0.0 0.0 0.00 0.00 0.00 62 1009.1
20260502012934 11 202 0.0 0.0 0.00 0.00 0.00 62 1009.1
20260502012832 11 0 0.0 0.0 0.00 0.00 0.00 62 1009.0
20260502012730 11 162 0.0 0.0 0.00 0.00 0.00 62 1009.0
20260502012654 11 173 0.0 0.0 0.00 0.00 0.00 62 1009.0
20260502012629 11 177 0.0 0.0 0.00 0.00 0.00 62 1009.0
20260502012529 11 177 0.0 0.0 0.00 0.00 0.00 63 1009.0
20260502012522 11 177 0.0 0.0 0.00 0.00 0.00 63 1009.1
20260502012429 11 177 0.0 0.0 0.00 0.00 0.00 63 1009.1
20260502012328 11 177 0.0 0.0 0.00 0.00 0.00 63 1009.0
20260502012228 11 177 0.0 0.0 0.00 0.00 0.00 63 1009.0
20260502012128 11 177 0.0 0.0 0.00 0.00 0.00 63 1009.0
20260502012037 11 177 0.0 0.0 0.00 0.00 0.00 63 1009.1
20260502012026 11 177 0.0 0.0 0.00 0.00 0.00 63 1009.1
20260502011939 11 177 0.0 0.0 0.00 0.00 0.00 63 1009.1
20260502011935 11 177 0.0 0.0 0.00 0.00 0.00 63 1009.1
20260502011725 11 177 0.0 0.0 0.00 0.00 0.00 62 1009.1
20260502011654 11 177 0.0 0.0 0.00 0.00 0.00 62 1009.1
20260502011624 11 0 0.0 0.0 0.00 0.00 0.00 63 1009.1
20260502011537 11 196 0.0 0.0 0.00 0.00 0.00 64 1009.1
20260502011523 11 196 0.0 0.0 0.00 0.00 0.00 64 1009.1
20260502011423 11 200 0.0 0.0 0.00 0.00 0.00 64 1009.1
20260502011322 11 207 0.0 0.0 0.00 0.00 0.00 65 1009.0
20260502011242 11 207 0.0 0.0 0.00 0.00 0.00 63 1009.0
20260502011236 11 207 0.0 0.0 0.00 0.00 0.00 64 1009.0
20260502011228 11 207 0.0 0.0 0.00 0.00 0.00 64 1009.0
20260502011022 11 207 0.0 0.0 0.00 0.00 0.00 62 1009.0
20260502011020 11 207 0.0 0.0 0.00 0.00 0.00 62 1009.0
20260502010920 11 0 0.0 0.0 0.00 0.00 0.00 63 1009.0
20260502010819 11 211 0.0 0.0 0.00 0.00 0.00 62 1009.0
20260502010718 11 211 0.0 0.0 0.00 0.00 0.00 61 1009.0
20260502010653 11 211 0.0 0.0 0.00 0.00 0.00 61 1009.0
20260502010631 11 211 0.0 0.0 0.00 0.00 0.00 62 1008.9
20260502010626 11 211 0.0 0.0 0.00 0.00 0.00 62 1009.0
20260502010522 11 211 0.0 0.0 0.00 0.00 0.00 62 1008.9
20260502010417 11 211 0.0 0.0 0.00 0.00 0.00 62 1008.9
20260502010329 11 211 0.0 0.0 0.00 0.00 0.00 62 1008.8
20260502010325 11 211 0.0 0.0 0.00 0.00 0.00 61 1008.8
20260502010153 11 211 0.0 0.0 0.00 0.00 0.00 62 1008.8
20260502010114 11 211 0.0 0.0 0.00 0.00 0.00 61 1008.8
20260502010022 12 211 0.0 0.0 0.00 0.00 0.00 62 1008.8
20260502010013 11 211 0.0 0.0 0.00 0.00 0.00 62 1008.8
20260502005926 12 211 0.0 0.0 0.00 0.00 0.00 63 1008.8
20260502005922 12 211 0.0 0.0 0.00 0.00 0.00 63 1008.8
20260502005713 12 211 0.0 0.0 0.00 0.00 0.00 62 1008.8
20260502005653 12 211 0.0 0.0 0.00 0.00 0.00 62 1008.8
20260502005611 12 211 0.0 0.0 0.00 0.00 0.00 62 1008.9
20260502005522 12 211 0.0 0.0 0.00 0.00 0.00 62 1008.9
20260502005511 12 211 0.0 0.0 0.00 0.00 0.00 62 1008.9
20260502005410 12 211 0.0 0.0 0.00 0.00 0.00 62 1008.9
20260502005309 12 211 0.0 0.0 0.00 0.00 0.00 61 1008.9
20260502005209 12 211 0.0 0.0 0.00 0.00 0.00 61 1008.9
20260502005151 12 211 0.0 0.0 0.00 0.00 0.00 60 1008.9
20260502005108 12 211 0.0 0.0 0.00 0.00 0.00 60 1008.9
20260502005022 12 211 0.0 0.0 0.00 0.00 0.00 60 1008.8
20260502005008 12 211 0.0 0.0 0.00 0.00 0.00 60 1008.8
20260502004906 12 211 0.0 0.0 0.00 0.00 0.00 60 1008.8
20260502004806 12 211 0.0 0.0 0.00 0.00 0.00 60 1008.8
20260502004720 12 211 0.0 0.0 0.00 0.00 0.00 59 1008.8
20260502004712 12 211 0.0 0.0 0.00 0.00 0.00 59 1008.8
20260502004552 12 211 0.0 0.0 0.00 0.00 0.00 59 1008.9
20260502004533 12 211 0.0 0.0 0.00 0.00 0.00 57 1008.9
20260502004528 12 211 0.0 0.0 0.00 0.00 0.00 57 1008.8
20260502004523 12 211 0.0 0.0 0.00 0.00 0.00 57 1008.9
20260502004203 12 211 0.0 0.0 0.00 0.00 0.00 56 1008.8
20260502004151 12 211 0.0 0.0 0.00 0.00 0.00 56 1008.8
20260502004102 13 211 0.0 0.0 0.00 0.00 0.00 55 1008.7
20260502004023 13 211 0.0 0.0 0.00 0.00 0.00 54 1008.7
20260502004000 13 211 0.0 0.0 0.00 0.00 0.00 54 1008.7
20260502003900 13 211 0.0 0.0 0.00 0.00 0.00 53 1008.6
20260502003759 13 211 0.0 0.0 0.00 0.00 0.00 53 1008.7
20260502003649 13 211 0.0 0.0 0.00 0.00 0.00 53 1008.6
20260502003600 13 211 0.0 0.0 0.00 0.00 0.00 53 1008.6
20260502003537 13 211 0.0 0.0 0.00 0.00 0.00 53 1008.6
20260502003500 13 211 0.0 0.0 0.00 0.00 0.00 53 1008.6
20260502003358 13 211 0.0 0.0 0.00 0.00 0.00 53 1008.6
20260502003258 13 211 0.0 0.0 0.00 0.00 0.00 52 1008.6
20260502003148 13 211 0.0 0.0 0.00 0.00 0.00 52 1008.6
20260502003118 13 211 0.0 0.0 0.00 0.00 0.00 52 1008.6
20260502003022 13 211 0.0 0.0 0.00 0.00 0.00 52 1008.6
20260502003005 13 211 0.0 0.0 0.00 0.00 0.00 52 1008.6
20260502002755 13 211 0.0 0.0 0.00 0.00 0.00 51 1008.5
20260502002647 13 211 0.0 0.0 0.00 0.00 0.00 52 1008.5
20260502002555 13 211 0.0 0.0 0.00 0.00 0.00 52 1008.5
20260502002522 13 211 0.0 0.0 0.00 0.00 0.00 52 1008.5
20260502002454 13 211 0.0 0.0 0.00 0.00 0.00 52 1008.5
20260502002354 13 211 0.0 0.0 0.00 0.00 0.00 52 1008.5
20260502002326 13 211 0.0 0.0 0.00 0.00 0.00 51 1008.5
20260502002322 14 211 0.0 0.0 0.00 0.00 0.00 51 1008.5
20260502002316 13 211 0.0 0.0 0.00 0.00 0.00 51 1008.5
20260502002200 13 211 0.0 0.0 0.00 0.00 0.00 51 1008.5
20260502002022 14 211 0.0 0.0 0.00 0.00 0.00 51 1008.6
20260502001952 14 211 0.0 0.0 0.00 0.00 0.00 51 1008.6
20260502001852 14 211 0.0 0.0 0.00 0.00 0.00 51 1008.5
20260502001751 14 211 0.0 0.0 0.00 0.00 0.00 50 1008.6
20260502001712 14 211 0.0 0.0 0.00 0.00 0.00 50 1008.7
20260502001659 14 211 0.0 0.0 0.00 0.00 0.00 50 1008.6
20260502001522 14 211 0.0 0.0 0.00 0.00 0.00 50 1008.6
20260502001451 14 211 0.0 0.0 0.00 0.00 0.00 50 1008.7
20260502001404 14 211 0.0 0.0 0.00 0.00 0.00 50 1008.6
20260502001358 14 211 0.0 0.0 0.00 0.00 0.00 50 1008.7
20260502001208 14 211 0.0 0.0 0.00 0.00 0.00 51 1008.6
20260502001156 14 211 0.0 0.0 0.00 0.00 0.00 50 1008.6
20260502000948 14 211 0.0 0.0 0.00 0.00 0.00 50 1008.6
20260502000904 15 211 0.0 0.0 0.00 0.00 0.00 50 1008.7
20260502000848 14 211 0.0 0.0 0.00 0.00 0.00 50 1008.7
20260502000758 14 211 0.0 0.0 0.00 0.00 0.00 50 1008.7
20260502000749 15 211 0.0 0.0 0.00 0.00 0.00 50 1008.7
20260502000547 15 211 0.0 0.0 0.00 0.00 0.00 49 1008.7
20260502000522 15 211 0.0 0.0 0.00 0.00 0.00 49 1008.6
20260502000447 15 211 0.0 0.0 0.00 0.00 0.00 48 1008.7
20260502000347 15 211 0.0 0.0 0.00 0.00 0.00 48 1008.7
20260502000247 15 211 0.0 0.0 0.00 0.00 0.00 48 1008.7
20260502000141 15 211 0.0 0.0 0.00 0.00 0.00 48 1008.7
20260502000044 15 211 0.0 0.0 0.00 0.00 0.00 48 1008.7
20260502000022 15 211 0.0 0.0 0.00 0.00 0.00 48 1008.5
20260501235944 15 211 0.0 0.0 0.00 0.00 0.00 47 1008.6
20260501235915 15 211 0.0 0.0 0.00 0.00 0.00 47 1008.6
20260501235911 15 211 0.0 0.0 0.00 0.00 0.00 47 1008.6
20260501235905 15 211 0.0 0.0 0.00 0.00 0.00 47 1008.7
20260501235643 15 211 0.0 0.0 0.00 0.00 0.00 47 1008.6
20260501235540 15 211 0.0 0.0 0.00 0.00 0.00 47 1008.6
20260501235523 15 360 0.0 0.0 0.00 0.00 0.00 47 1008.4
20260501235453 15 211 0.0 0.0 0.00 0.00 0.00 46 1008.6
20260501235447 15 211 0.0 0.0 0.00 0.00 0.00 47 1008.6
20260501235238 15 211 0.0 0.0 0.00 0.00 0.00 47 1008.6
20260501235137 15 0 0.0 0.0 0.00 0.00 0.00 47 1008.5
20260501235038 15 0 0.0 0.0 0.00 0.00 0.00 46 1008.5
20260501235022 15 360 0.0 0.0 0.00 0.00 0.00 46 1008.4
20260501234937 15 0 0.0 0.0 0.00 0.00 0.00 46 1008.5
20260501234836 15 0 0.0 0.0 0.00 0.00 0.00 46 1008.4
20260501234735 15 0 0.0 0.0 0.00 0.00 0.00 46 1008.4
20260501234634 15 0 0.0 0.0 0.00 0.00 0.00 46 1008.4
20260501234534 15 0 0.0 0.0 0.00 0.00 0.00 45 1008.4
20260501234522 15 360 0.0 0.0 0.00 0.00 0.00 46 1008.3
20260501234449 15 0 0.0 0.0 0.00 0.00 0.00 45 1008.4
20260501234443 15 0 0.0 0.0 0.00 0.00 0.00 46 1008.4
20260501234235 15 0 0.0 0.0 0.00 0.00 0.00 45 1008.4
20260501234133 15 0 0.0 0.0 0.00 0.00 0.00 45 1008.4
20260501234053 15 360 0.0 0.0 0.00 0.00 0.00 45 1008.3
20260501234033 15 0 0.0 0.0 0.00 0.00 0.00 45 1008.5
20260501233947 15 0 0.0 0.0 0.00 0.00 0.00 45 1008.4
20260501233941 15 0 0.0 0.0 0.00 0.00 0.00 45 1008.4
20260501233732 16 0 0.0 0.0 0.00 0.00 0.00 45 1008.4
20260501233631 16 0 0.0 0.0 0.00 0.00 0.00 45 1008.4
20260501233530 16 0 0.0 0.0 0.00 0.00 0.00 44 1008.3
20260501233522 16 360 0.0 0.0 0.00 0.00 0.00 44 1008.2
20260501233430 16 0 0.0 3.2 0.00 0.00 0.00 44 1008.3
20260501233329 16 0 0.0 3.2 0.00 0.00 0.00 44 1008.3
20260501233229 16 0 0.0 3.2 0.00 0.00 0.00 44 1008.2
20260501233129 16 0 0.0 3.2 0.00 0.00 0.00 44 1008.2
20260501233028 16 0 0.0 3.2 0.00 0.00 0.00 44 1008.2
20260501233022 16 360 0.0 3.2 0.00 0.00 0.00 44 1008.1
20260501232941 16 0 0.0 3.2 0.00 0.00 0.00 43 1008.1
20260501232936 16 0 0.0 3.2 0.00 0.00 0.00 43 1008.2
20260501232724 16 0 0.0 3.2 0.00 0.00 0.00 43 1008.1
20260501232623 16 0 0.0 3.2 0.00 0.00 0.00 43 1008.2
20260501232537 16 360 0.0 3.2 0.00 0.00 0.00 43 1008.0
20260501232524 16 0 0.0 3.2 0.00 0.00 0.00 43 1008.2
20260501232423 16 0 0.0 1.6 0.00 0.00 0.00 43 1008.1
20260501232323 16 0 0.0 1.6 0.00 0.00 0.00 43 1008.1
20260501232222 16 0 0.0 1.6 0.00 0.00 0.00 43 1008.0
20260501232144 16 0 0.0 1.6 0.00 0.00 0.00 43 1008.0
20260501232037 16 360 0.0 1.6 0.00 0.00 0.00 43 1007.8
20260501232031 16 0 0.0 1.6 0.00 0.00 0.00 43 1008.0
20260501231821 16 0 0.0 1.6 0.00 0.00 0.00 43 1007.9
20260501231721 16 0 0.0 1.6 0.00 0.00 0.00 43 1007.9
20260501231633 16 0 0.0 1.6 0.00 0.00 0.00 44 1007.9
20260501231620 16 0 0.0 1.6 0.00 0.00 0.00 43 1007.9
20260501231522 16 360 0.0 1.6 0.00 0.00 0.00 43 1007.8
20260501231519 16 0 0.0 1.6 0.00 0.00 0.00 43 1007.9
20260501231432 16 0 0.0 0.0 0.00 0.00 0.00 43 1007.9
20260501231426 16 0 0.0 0.0 0.00 0.00 0.00 43 1007.9
20260501231217 16 0 0.0 1.6 0.00 0.00 0.00 43 1007.9
20260501231138 16 0 0.0 4.8 0.00 0.00 0.00 43 1007.9
20260501231024 16 0 0.0 4.8 0.00 0.00 0.00 43 1007.9
20260501231022 16 360 0.0 4.8 0.00 0.00 0.00 43 1007.7
20260501230816 16 0 0.0 6.4 0.00 0.00 0.00 43 1007.8
20260501230714 16 0 0.0 6.4 0.00 0.00 0.00 42 1007.8
20260501230628 16 0 0.0 6.4 0.00 0.00 0.00 42 1007.8
20260501230613 16 0 0.0 6.4 0.00 0.00 0.00 42 1007.9
20260501230552 16 360 0.0 6.4 0.00 0.00 0.00 41 1007.8
20260501230512 16 0 0.0 6.4 0.00 0.00 0.00 41 1007.9
20260501230413 16 0 0.0 6.4 0.00 0.00 0.00 42 1007.8
20260501230312 16 0 0.0 6.4 0.00 0.00 0.00 42 1007.8
20260501230211 16 0 0.0 6.4 0.00 0.00 0.00 42 1007.9
20260501230126 16 0 0.0 6.4 0.00 0.00 0.00 42 1007.9
20260501230109 16 0 0.0 6.4 0.00 0.00 0.00 42 1007.9
20260501230022 16 360 0.0 16.1 0.00 0.00 0.00 41 1007.8
20260501230009 16 0 0.0 16.1 0.00 0.00 0.00 41 1007.9
20260501225926 16 0 0.0 16.1 0.00 0.00 0.00 41 1007.9
20260501225922 16 0 0.0 16.1 0.00 0.00 0.00 41 1007.9
20260501225916 16 0 0.0 16.1 0.00 0.00 0.00 41 1007.9
20260501225747 16 0 0.0 16.1 0.00 0.00 0.00 42 1007.9
20260501225632 16 0 0.0 16.1 0.00 0.00 0.00 41 1007.9
20260501225522 16 360 0.0 16.1 0.00 0.00 0.00 42 1007.6
20260501225520 16 0 0.0 16.1 0.00 0.00 0.00 41 1007.8
20260501225515 16 0 0.0 16.1 0.00 0.00 0.00 42 1007.8
20260501225359 16 0 0.0 16.1 0.00 0.00 0.00 41 1007.8
20260501225355 17 0 0.0 9.7 0.00 0.00 0.00 42 1007.8
20260501225348 16 0 0.0 16.1 0.00 0.00 0.00 42 1007.8
20260501225339 16 0 0.0 16.1 0.00 0.00 0.00 42 1007.8
20260501225022 17 360 3.2 9.7 0.00 0.00 0.00 42 1007.6
20260501225011 17 0 0.0 9.7 0.00 0.00 0.00 42 1007.8
20260501224830 17 0 0.0 14.5 0.00 0.00 0.00 41 1007.7
20260501224825 17 0 0.0 9.7 0.00 0.00 0.00 42 1007.7
20260501224816 17 0 0.0 14.5 0.00 0.00 0.00 42 1007.7
20260501224537 17 360 0.0 14.5 0.00 0.00 0.00 42 1007.6
20260501224459 17 0 0.0 14.5 0.00 0.00 0.00 42 1007.8
20260501224358 17 0 0.0 14.5 0.00 0.00 0.00 41 1007.8
20260501224258 17 0 0.0 14.5 0.00 0.00 0.00 41 1007.8
20260501224157 17 0 0.0 14.5 0.00 0.00 0.00 41 1007.8
20260501224123 17 0 0.0 14.5 0.00 0.00 0.00 41 1007.8
20260501224056 17 0 0.0 14.5 0.00 0.00 0.00 40 1007.7
20260501224037 17 360 0.0 14.5 0.00 0.00 0.00 40 1007.5
20260501223955 17 0 0.0 14.5 0.00 0.00 0.00 40 1007.7
20260501223855 17 0 0.0 14.5 0.00 0.00 0.00 40 1007.8
20260501223755 17 0 0.0 6.4 0.00 0.00 0.00 40 1007.8
20260501223654 17 0 0.0 6.4 0.00 0.00 0.00 40 1007.9
20260501223623 17 0 0.0 6.4 0.00 0.00 0.00 40 1008.0
20260501223554 17 0 0.0 6.4 0.00 0.00 0.00 39 1007.9
20260501223522 17 360 0.0 3.2 0.00 0.00 0.00 39 1007.7
20260501223453 17 0 0.0 6.4 0.00 0.00 0.00 39 1008.0
20260501223414 17 0 0.0 6.4 0.00 0.00 0.00 40 1008.0
20260501223301 17 0 0.0 6.4 0.00 0.03 0.00 39 1008.0
20260501223120 17 0 0.0 6.4 0.00 0.03 0.00 39 1008.0
20260501223052 17 0 0.0 6.4 0.00 0.03 0.00 39 1008.1
20260501223022 17 360 0.0 3.2 0.00 0.03 0.00 39 1007.8
20260501222951 17 0 0.0 6.4 0.00 0.03 0.00 39 1008.1
20260501222908 18 170 0.0 0.0 0.00 0.03 0.00 39 1008.1
20260501222904 18 232 0.0 3.2 0.00 0.03 0.00 39 1008.1
20260501222858 18 208 0.0 0.0 0.00 0.03 0.00 39 1008.1
20260501222728 18 232 0.0 0.0 0.00 0.03 0.00 39 1008.1
20260501222548 18 218 0.0 3.2 0.00 0.03 0.00 39 1008.1
20260501222522 18 218 0.0 3.2 0.00 0.03 0.00 39 1007.7
20260501222509 18 218 0.0 3.2 0.00 0.03 0.00 39 1008.0
20260501222355 18 200 0.0 3.2 0.00 0.03 0.00 38 1008.1
20260501222146 18 202 0.0 8.0 0.00 0.03 0.00 38 1008.2
20260501222120 18 205 0.0 8.0 0.00 0.03 0.00 39 1008.2
20260501222046 18 229 0.0 8.0 0.00 0.03 0.00 39 1008.2
20260501222022 18 229 0.0 8.0 0.00 0.03 0.00 39 1007.8
20260501222006 18 230 0.0 8.0 0.00 0.03 0.00 39 1008.1
20260501221853 18 186 0.0 8.0 0.00 0.03 0.00 39 1008.2
20260501221703 18 221 0.0 8.0 0.00 0.03 0.00 39 1008.2
20260501221657 18 209 0.0 8.0 0.00 0.03 0.00 38 1008.2
20260501221649 18 209 0.0 8.0 0.00 0.03 0.00 39 1008.2
20260501221522 18 250 0.0 8.0 0.00 0.03 0.00 39 1007.9
20260501221442 18 213 0.0 8.0 0.00 0.03 0.00 39 1008.2
20260501221351 17 192 0.0 4.8 0.00 0.03 0.00 39 1008.2
20260501221342 18 234 0.0 8.0 0.00 0.03 0.00 39 1008.2
20260501221241 17 234 0.0 8.0 0.00 0.03 0.00 38 1008.2
20260501221226 17 217 0.0 4.8 0.00 0.03 0.00 38 1008.2
20260501221039 17 220 0.0 1.6 0.00 0.03 0.00 39 1008.2
20260501221022 17 188 0.0 1.6 0.00 0.03 0.00 39 1007.9
20260501220939 17 188 0.0 1.6 0.00 0.03 0.00 39 1008.2
20260501220838 17 223 0.0 1.6 0.00 0.03 0.00 40 1008.2
20260501220738 17 194 0.0 1.6 0.00 0.03 0.00 40 1008.2
20260501220617 17 177 0.0 0.0 0.00 0.03 0.00 40 1008.2
20260501220550 17 177 0.0 1.6 0.00 0.03 0.00 40 1008.2
20260501220545 17 177 0.0 0.0 0.00 0.03 0.00 40 1008.2
20260501220522 17 177 0.0 0.0 0.00 0.03 0.00 40 1007.9
20260501220336 17 200 0.0 6.4 0.00 0.03 0.00 41 1008.3
20260501220235 17 200 0.0 20.9 0.00 0.03 0.00 41 1008.3
20260501220203 17 202 0.0 20.9 0.00 0.03 0.00 40 1008.1
20260501220119 17 202 0.0 20.9 0.00 0.03 0.00 40 1008.1
20260501220042 17 205 0.0 20.9 0.00 0.03 0.00 40 1008.1
20260501220035 17 202 0.0 20.9 0.00 0.03 0.00 40 1008.1
20260501220022 17 202 0.0 20.9 0.00 0.03 0.00 40 1007.9
20260501215731 17 224 0.0 20.9 0.00 0.03 0.00 40 1008.1
20260501215650 17 178 0.0 20.9 0.00 0.03 0.00 39 1008.0
20260501215645 17 201 0.0 20.9 0.00 0.03 0.00 40 1008.1
20260501215638 17 201 0.0 20.9 0.00 0.03 0.00 40 1008.1
20260501215522 17 210 0.0 20.9 0.00 0.03 0.00 39 1007.8
20260501215430 17 178 0.0 20.9 0.00 0.03 0.00 39 1008.0
20260501215328 17 128 0.0 20.9 0.00 0.03 0.00 40 1008.0
20260501215228 17 144 0.0 6.4 0.00 0.03 0.00 41 1008.0
20260501215127 17 204 0.0 6.4 0.00 0.03 0.00 40 1008.0
20260501215116 17 194 0.0 6.4 0.00 0.03 0.00 40 1008.0
20260501215027 17 192 0.0 6.4 0.00 0.03 0.00 40 1008.0
20260501215022 17 196 0.0 14.5 0.00 0.03 0.00 40 1007.7
20260501214927 17 234 0.0 14.5 0.00 0.03 0.00 41 1007.9
20260501214827 17 190 0.0 14.5 0.00 0.03 0.00 43 1007.9
20260501214727 17 196 0.0 14.5 0.00 0.03 0.00 42 1007.9
20260501214625 17 224 0.0 14.5 0.00 0.03 0.00 42 1007.9
20260501214615 17 186 0.0 14.5 0.00 0.03 0.00 42 1007.9
20260501214525 17 155 0.0 14.5 0.00 0.03 0.00 42 1007.8
20260501214522 17 169 0.0 14.5 0.00 0.03 0.00 42 1007.6
20260501214438 17 0 0.0 14.5 0.00 0.03 0.00 41 1007.8
20260501214433 17 140 0.0 14.5 0.00 0.03 0.00 42 1007.8
20260501214222 17 0 0.0 14.5 0.00 0.03 0.00 40 1007.9
20260501214115 17 0 0.0 14.5 0.00 0.03 0.00 39 1007.9
20260501214022 17 360 0.0 1.6 0.00 0.03 0.00 40 1007.8
20260501213921 17 0 0.0 0.0 0.00 0.03 0.00 39 1008.0
20260501213821 17 0 0.0 0.0 0.00 0.03 0.00 39 1007.9
20260501213720 17 0 0.0 0.0 0.00 0.03 0.00 39 1008.0
20260501213614 17 0 0.0 0.0 0.00 0.03 0.00 40 1008.0
20260501213523 17 360 0.0 3.2 0.00 0.03 0.00 40 1007.9
20260501213520 17 0 0.0 4.8 0.00 0.03 0.00 40 1008.1
20260501213418 17 0 0.0 9.7 0.00 0.03 0.00 40 1008.1
20260501213338 17 0 0.0 9.7 0.00 0.03 0.00 39 1008.1
20260501213317 17 0 0.0 9.7 0.00 0.03 0.00 40 1008.2
20260501213230 17 0 0.0 9.7 0.00 0.03 0.00 40 1008.1
20260501213221 17 0 0.0 9.7 0.00 0.03 0.00 39 1008.1
20260501213022 18 360 0.0 9.7 0.00 0.03 0.00 38 1007.8
20260501213015 18 0 0.0 9.7 0.00 0.03 0.00 38 1008.1
20260501212915 18 0 0.0 9.7 0.00 0.03 0.00 38 1008.1
20260501212813 18 0 0.0 9.7 0.00 0.03 0.00 37 1008.2
20260501212713 18 0 0.0 9.7 0.00 0.03 0.00 36 1008.2
20260501212612 18 0 0.0 9.7 0.00 0.03 0.00 36 1008.2
20260501212522 19 360 0.0 9.7 0.00 0.03 0.00 37 1007.9
20260501212512 19 0 0.0 9.7 0.00 0.03 0.00 37 1008.2
20260501212412 19 0 0.0 1.6 0.00 0.03 0.00 36 1008.2
20260501212326 19 261 0.0 1.6 0.00 0.03 0.00 36 1008.2
20260501212320 19 222 0.0 1.6 0.00 0.03 0.00 36 1008.2
20260501212112 19 250 0.0 1.6 0.00 0.03 0.00 36 1008.2
20260501212022 19 209 0.0 0.0 0.00 0.03 0.00 35 1008.0
20260501212011 19 209 0.0 1.6 0.00 0.03 0.00 36 1008.3
20260501211911 19 209 0.0 1.6 0.00 0.03 0.00 35 1008.2
20260501211811 19 217 0.0 1.6 0.00 0.03 0.00 35 1008.2
20260501211710 19 219 0.0 1.6 0.00 0.03 0.00 36 1008.1
20260501211616 19 223 0.0 1.6 0.00 0.03 0.00 37 1008.2
20260501211609 19 231 0.0 1.6 0.00 0.03 0.00 37 1008.2
20260501211522 19 263 0.0 4.8 0.00 0.03 0.00 37 1007.9
20260501211510 19 263 0.0 4.8 0.00 0.03 0.00 37 1008.2
20260501211408 19 263 0.0 4.8 0.00 0.03 0.00 34 1008.1
20260501211307 19 240 0.0 6.4 0.00 0.03 0.00 34 1008.1
20260501211207 19 220 0.0 6.4 0.00 0.03 0.00 34 1008.1
20260501211114 19 241 0.0 6.4 0.00 0.03 0.00 34 1008.1
20260501211106 19 259 0.0 6.4 0.00 0.03 0.00 34 1008.1
20260501211022 19 222 0.0 14.5 0.00 0.03 0.00 35 1007.8
20260501211006 19 265 0.0 14.5 0.00 0.03 0.00 35 1008.1
20260501210904 19 242 0.0 14.5 0.00 0.03 0.00 35 1008.1
20260501210804 19 236 0.0 14.5 0.00 0.03 0.00 36 1008.1
20260501210704 19 271 0.0 14.5 0.00 0.03 0.00 34 1008.1
20260501210613 19 303 0.0 14.5 0.00 0.03 0.00 34 1008.1
20260501210602 19 229 0.0 14.5 0.00 0.03 0.00 34 1008.1
20260501210522 19 198 0.0 14.5 0.00 0.03 0.00 35 1007.8
20260501210502 19 201 1.6 14.5 0.00 0.03 0.00 35 1008.1
20260501210400 19 265 0.0 14.5 0.00 0.03 0.00 35 1008.1
20260501210301 19 242 0.0 14.5 0.00 0.03 0.00 36 1008.1
20260501210200 19 259 0.0 14.5 0.00 0.03 0.00 36 1008.1
20260501210113 19 341 0.0 14.5 0.00 0.03 0.00 35 1008.1
20260501210059 19 260 0.0 14.5 0.00 0.03 0.00 35 1008.1
20260501210022 19 244 14.5 14.5 0.00 0.03 0.00 35 1007.8
20260501205959 19 222 0.0 6.4 0.00 0.03 0.00 35 1008.1
20260501205912 19 242 0.0 6.4 0.00 0.03 0.00 34 1008.2
20260501205908 19 294 0.0 6.4 0.00 0.03 0.00 36 1008.1
20260501205659 19 261 0.0 6.4 0.00 0.03 0.00 35 1008.1
20260501205612 19 309 0.0 6.4 0.00 0.03 0.00 34 1008.2
20260501205555 19 190 0.0 6.4 0.00 0.03 0.00 34 1008.2
20260501205537 19 227 0.0 6.4 0.00 0.03 0.00 35 1007.9
20260501205455 19 215 0.0 6.4 0.00 0.03 0.00 35 1008.2
20260501205406 19 232 0.0 0.0 0.00 0.03 0.00 35 1008.2
20260501205401 19 259 0.0 0.0 0.00 0.03 0.00 34 1008.2
20260501205211 19 177 0.0 0.0 0.00 0.03 0.00 35 1008.1
20260501205205 19 277 0.0 0.0 0.00 0.03 0.00 34 1008.1
20260501205157 19 195 0.0 0.0 0.00 0.03 0.00 34 1008.1
20260501205037 19 247 0.0 4.8 0.00 0.03 0.00 36 1007.9
20260501204949 19 260 0.0 4.8 0.00 0.03 0.00 36 1008.1
20260501204849 19 205 0.0 4.8 0.00 0.03 0.00 36 1008.1
20260501204748 19 205 0.0 4.8 0.00 0.03 0.00 35 1008.2
20260501204648 19 218 0.0 14.5 0.00 0.03 0.00 34 1008.2
20260501204612 19 250 0.0 14.5 0.00 0.03 0.00 34 1008.2
20260501204552 19 207 0.0 12.9 0.00 0.03 0.00 36 1007.9
20260501204548 19 250 0.0 14.5 0.00 0.03 0.00 36 1008.2
20260501204503 19 238 0.0 14.5 0.00 0.03 0.00 35 1008.2
20260501204459 19 248 0.0 14.5 0.00 0.03 0.00 36 1008.2
20260501204454 19 236 0.0 14.5 0.00 0.03 0.00 35 1008.1
20260501204308 19 257 0.0 14.5 0.00 0.03 0.00 36 1008.2
20260501204259 19 237 0.0 14.5 0.00 0.03 0.00 36 1008.2
20260501204144 19 207 0.0 14.5 0.00 0.03 0.00 35 1008.2
20260501204033 19 266 0.0 11.3 0.00 0.03 0.00 37 1008.2
20260501204027 19 225 0.0 14.5 0.00 0.03 0.00 35 1008.2
20260501204022 19 249 0.0 12.9 0.00 0.03 0.00 35 1007.9
20260501203805 19 198 0.0 14.5 0.00 0.03 0.00 34 1008.2
20260501203756 19 242 0.0 11.3 0.00 0.03 0.00 37 1008.2
20260501203537 19 247 11.3 11.3 0.00 0.03 0.00 37 1007.9
20260501203453 19 225 0.0 3.2 0.00 0.03 0.00 37 1008.1
20260501203449 19 267 0.0 3.2 0.00 0.03 0.00 36 1008.1
20260501203240 19 269 0.0 3.2 0.00 0.03 0.00 35 1008.1
20260501203140 19 297 0.0 3.2 0.00 0.03 0.00 36 1008.1
20260501203112 19 292 0.0 3.2 0.00 0.03 0.00 36 1008.1
20260501203039 19 214 0.0 3.2 0.00 0.03 0.00 36 1008.1
20260501203022 19 211 0.0 3.2 0.00 0.03 0.00 35 1007.8
20260501202939 19 295 0.0 3.2 0.00 0.03 0.00 37 1008.1
20260501202838 19 242 0.0 3.2 0.00 0.03 0.00 35 1008.1
20260501202738 19 257 0.0 3.2 0.00 0.03 0.00 35 1008.2
20260501202637 19 231 0.0 3.2 0.00 0.03 0.00 36 1008.2
20260501202612 19 259 0.0 3.2 0.00 0.03 0.00 36 1008.2
20260501202536 19 233 0.0 3.2 0.00 0.03 0.00 36 1008.2
20260501202522 19 202 1.6 3.2 0.00 0.03 0.00 35 1007.9
20260501202436 19 224 0.0 1.6 0.00 0.03 0.00 35 1008.2
20260501202335 19 241 0.0 1.6 0.00 0.03 0.00 35 1008.2
20260501202234 19 267 0.0 1.6 0.00 0.03 0.00 36 1008.2
20260501202112 19 242 0.0 4.8 0.00 0.03 0.00 36 1008.2
20260501202046 18 212 0.0 4.8 0.00 0.03 0.00 35 1008.2
20260501202042 19 234 0.0 4.8 0.00 0.03 0.00 36 1008.2
20260501202022 19 226 0.0 4.8 0.00 0.03 0.00 36 1008.0
20260501201832 18 225 0.0 4.8 0.00 0.03 0.00 36 1008.2
20260501201745 19 218 0.0 4.8 0.00 0.03 0.00 35 1008.2
20260501201741 19 215 0.0 4.8 0.00 0.03 0.00 36 1008.2
20260501201611 19 197 0.0 4.8 0.00 0.03 0.00 35 1008.2
20260501201537 19 202 0.0 4.8 0.00 0.03 0.00 36 1008.0
20260501201532 19 196 0.0 4.8 0.00 0.03 0.00 36 1008.2
20260501201432 19 229 0.0 6.4 0.00 0.03 0.00 36 1008.2
20260501201342 19 233 0.0 6.4 0.00 0.03 0.00 38 1008.2
20260501201338 19 234 0.0 6.4 0.00 0.03 0.00 38 1008.3
20260501201334 19 192 0.0 6.4 0.00 0.03 0.00 37 1008.2
20260501201325 19 205 0.0 6.4 0.00 0.03 0.00 36 1008.2
20260501201042 19 187 0.0 6.4 0.00 0.03 0.00 37 1008.3
20260501201038 19 250 0.0 6.4 0.00 0.03 0.00 36 1008.3
20260501201022 19 220 0.0 6.4 0.00 0.03 0.00 36 1008.1
20260501200828 19 219 0.0 6.4 0.00 0.03 0.00 37 1008.3
20260501200728 19 220 0.0 6.4 0.00 0.03 0.00 34 1008.3
20260501200627 19 196 0.0 6.4 0.00 0.03 0.00 34 1008.3
20260501200608 19 215 0.0 6.4 0.00 0.03 0.00 34 1008.3
20260501200527 19 209 0.0 6.4 0.00 0.03 0.00 36 1008.3
20260501200522 19 209 0.0 6.4 0.00 0.03 0.00 36 1008.1
20260501200426 19 220 0.0 6.4 0.00 0.03 0.00 36 1008.3
20260501200344 19 244 0.0 6.4 0.00 0.03 0.00 35 1008.4
20260501200339 19 267 0.0 6.4 0.00 0.03 0.00 35 1008.4
20260501200335 19 231 0.0 6.4 0.00 0.03 0.00 34 1008.3
20260501200216 19 249 0.0 6.4 0.00 0.03 0.00 35 1008.4
20260501200024 19 197 0.0 6.4 0.00 0.03 0.00 35 1008.4
20260501200022 19 235 0.0 6.4 0.00 0.03 0.00 35 1008.0
20260501195936 19 202 0.0 3.2 0.00 0.03 0.00 34 1008.3
20260501195931 19 212 0.0 3.2 0.00 0.03 0.00 34 1008.3
20260501195721 19 213 0.0 4.8 0.00 0.03 0.00 35 1008.4
20260501195607 19 199 0.0 6.4 0.00 0.03 0.00 34 1008.5
20260501195522 20 223 0.0 6.4 0.00 0.03 0.00 36 1008.3
20260501195519 19 222 0.0 6.4 0.00 0.03 0.00 36 1008.5
20260501195431 19 230 0.0 6.4 0.00 0.03 0.00 35 1008.5
20260501195427 19 178 0.0 6.4 0.00 0.03 0.00 35 1008.5
20260501195245 19 258 0.0 6.4 0.00 0.03 0.00 35 1008.5
20260501195131 19 250 0.0 6.4 0.00 0.03 0.00 35 1008.5
20260501195123 19 248 0.0 6.4 0.00 0.03 0.00 35 1008.5
20260501195022 19 239 0.0 6.4 0.00 0.03 0.00 36 1008.4
20260501194916 19 202 0.0 6.4 0.00 0.03 0.00 36 1008.6
20260501194815 19 228 0.0 6.4 0.00 0.03 0.00 36 1008.5
20260501194714 19 231 0.0 6.4 0.00 0.03 0.00 37 1008.5
20260501194604 19 234 0.0 6.4 0.00 0.03 0.00 36 1008.5
20260501194527 19 236 0.0 6.4 0.00 0.03 0.00 35 1008.6
20260501194523 19 220 0.0 6.4 0.00 0.03 0.00 36 1008.6
20260501194314 19 198 0.0 6.4 0.00 0.03 0.00 35 1008.5
20260501194212 19 198 0.0 6.4 0.00 0.03 0.00 36 1008.5
20260501194112 19 196 0.0 6.4 0.00 0.03 0.00 37 1008.6
20260501194102 19 198 0.0 6.4 0.00 0.03 0.00 36 1008.6
20260501194038 19 196 0.0 6.4 0.00 0.03 0.00 36 1008.4
20260501194012 19 196 0.0 6.4 0.00 0.03 0.00 36 1008.6
20260501193912 19 242 0.0 6.4 0.00 0.03 0.00 38 1008.5
20260501193841 19 230 0.0 0.0 0.00 0.03 0.00 37 1008.6
20260501193810 19 266 0.0 6.4 0.00 0.03 0.00 38 1008.5
20260501193743 19 240 0.0 0.0 0.00 0.03 0.00 35 1008.6
20260501193738 19 214 0.0 6.4 0.00 0.03 0.00 38 1008.6
20260501193729 19 226 0.0 0.0 0.00 0.03 0.00 37 1008.6
20260501193522 19 265 0.0 0.0 0.00 0.03 0.00 35 1008.4
20260501193408 19 149 0.0 0.0 0.00 0.03 0.00 35 1008.6
20260501193334 19 240 0.0 0.0 0.00 0.03 0.00 36 1008.5
20260501193308 19 163 0.0 0.0 0.00 0.03 0.00 37 1008.6
20260501193237 18 234 0.0 0.0 0.00 0.03 0.00 39 1008.6
20260501193231 19 244 0.0 0.0 0.00 0.03 0.00 36 1008.6
20260501193222 19 240 0.0 0.0 0.00 0.03 0.00 36 1008.5
20260501193022 18 234 0.0 0.0 0.00 0.03 0.00 39 1008.4
20260501192906 18 263 0.0 0.0 0.00 0.03 0.00 38 1008.6
20260501192805 18 248 0.0 0.0 0.00 0.03 0.00 36 1008.6
20260501192704 18 211 0.0 0.0 0.00 0.03 0.00 37 1008.6
20260501192604 18 206 0.0 1.6 0.00 0.03 0.00 37 1008.7
20260501192537 18 205 0.0 1.6 0.00 0.03 0.00 37 1008.3
20260501192503 18 205 0.0 1.6 0.00 0.03 0.00 37 1008.6
20260501192402 18 254 0.0 1.6 0.00 0.03 0.00 40 1008.7
20260501192301 18 241 0.0 1.6 0.00 0.03 0.00 37 1008.6
20260501192201 18 273 0.0 1.6 0.00 0.03 0.00 39 1008.7
20260501192100 18 261 0.0 1.6 0.00 0.03 0.00 37 1008.7
20260501192027 18 182 0.0 1.6 0.00 0.03 0.00 35 1008.7
20260501192022 18 194 0.0 1.6 0.00 0.03 0.00 38 1008.4
20260501192018 18 188 0.0 1.6 0.00 0.03 0.00 38 1008.7
20260501191659 18 158 0.0 17.7 0.00 0.03 0.00 34 1008.8
20260501191603 18 166 0.0 17.7 0.00 0.03 0.00 34 1008.7
20260501191558 18 153 0.0 17.7 0.00 0.03 0.00 34 1008.7
20260501191522 19 180 0.0 17.7 0.00 0.03 0.00 34 1008.6
20260501191457 19 150 0.0 17.7 0.00 0.03 0.00 34 1008.8
20260501191410 19 232 0.0 17.7 0.00 0.03 0.00 35 1008.9
20260501191406 19 171 0.0 17.7 0.00 0.03 0.00 35 1008.9
20260501191156 19 240 0.0 17.7 0.00 0.03 0.00 34 1008.9
20260501191056 19 240 0.0 17.7 0.00 0.03 0.00 36 1008.9
20260501191022 19 230 0.0 17.7 0.00 0.03 0.00 37 1008.8
20260501190954 19 232 0.0 17.7 0.00 0.03 0.00 37 1009.0
20260501190854 19 263 0.0 17.7 0.00 0.03 0.00 35 1008.9
20260501190754 19 229 0.0 11.3 0.00 0.03 0.00 36 1009.0
20260501190652 19 242 0.0 11.3 0.00 0.03 0.00 36 1009.0
20260501190600 19 206 0.0 11.3 0.00 0.03 0.00 38 1009.0
20260501190553 19 175 0.0 11.3 0.00 0.03 0.00 38 1009.0
20260501190523 19 234 0.0 11.3 0.00 0.03 0.00 34 1009.1
20260501190519 19 265 0.0 11.3 0.00 0.03 0.00 35 1009.1
20260501190514 19 261 0.0 1.6 0.00 0.03 0.00 37 1009.1
20260501190510 19 212 0.0 11.3 0.00 0.03 0.00 37 1009.1
20260501190208 19 248 0.0 3.2 0.00 0.03 0.00 36 1009.0
20260501190050 19 243 0.0 1.6 0.00 0.03 0.00 35 1009.1
20260501190022 19 241 0.0 1.6 0.00 0.03 0.00 35 1008.9
20260501185949 19 238 0.0 1.6 0.00 0.03 0.00 35 1009.1
20260501185908 19 241 0.0 1.6 0.00 0.03 0.00 35 1009.1
20260501185754 19 240 0.0 1.6 0.00 0.03 0.00 36 1009.1
20260501185559 19 213 0.0 3.2 0.00 0.03 0.00 34 1009.2
20260501185545 19 213 0.0 3.2 0.00 0.03 0.00 36 1009.2
20260501185522 19 190 0.0 3.2 0.00 0.03 0.00 36 1008.9
20260501185444 19 221 0.0 3.2 0.00 0.03 0.00 36 1009.1
20260501185344 19 231 0.0 3.2 0.00 0.03 0.00 36 1009.1
20260501185257 19 272 0.0 3.2 0.00 0.03 0.00 35 1009.2
20260501185253 19 329 0.0 3.2 0.00 0.03 0.00 36 1009.1
20260501185042 19 263 0.0 3.2 0.00 0.03 0.00 36 1009.2
20260501185037 19 217 0.0 3.2 0.00 0.03 0.00 36 1009.0
20260501184942 19 226 0.0 3.2 0.00 0.03 0.00 36 1009.2
20260501184841 19 246 0.0 3.2 0.00 0.03 0.00 38 1009.2
20260501184741 18 259 0.0 3.2 0.00 0.03 0.00 38 1009.3
20260501184659 18 217 0.0 1.6 0.00 0.03 0.00 38 1009.3
20260501184655 18 261 0.0 3.2 0.00 0.03 0.00 37 1009.2
20260501184646 18 194 0.0 1.6 0.00 0.03 0.00 38 1009.3
20260501184537 18 229 0.0 1.6 0.00 0.03 0.00 38 1009.1
20260501184439 18 248 0.0 1.6 0.00 0.03 0.00 37 1009.3
20260501184338 18 251 0.0 1.6 0.00 0.03 0.00 39 1009.3
20260501184238 18 239 0.0 1.6 0.00 0.03 0.00 38 1009.3
20260501184136 18 200 0.0 1.6 0.00 0.03 0.00 38 1009.4
20260501184058 18 240 0.0 1.6 0.00 0.03 0.00 38 1009.3
20260501184033 18 227 0.0 1.6 0.00 0.03 0.00 38 1009.3
20260501184022 18 204 0.0 1.6 0.00 0.03 0.00 40 1009.1
20260501183934 18 240 0.0 1.6 0.00 0.03 0.00 39 1009.3
20260501183846 18 235 0.0 1.6 0.00 0.03 0.00 38 1009.3
20260501183842 18 232 0.0 1.6 0.00 0.03 0.00 39 1009.3
20260501183631 18 242 0.0 1.6 0.00 0.03 0.00 39 1009.3
20260501183556 18 272 0.0 1.6 0.00 0.03 0.00 39 1009.4
20260501183531 18 273 0.0 1.6 0.00 0.03 0.00 39 1009.4
20260501183522 18 273 0.0 1.6 0.00 0.03 0.00 39 1009.2
20260501183429 18 242 0.0 1.6 0.00 0.03 0.00 39 1009.4
20260501183329 18 269 0.0 1.6 0.00 0.03 0.00 35 1009.4
20260501183229 18 321 0.0 1.6 0.00 0.03 0.00 36 1009.4
20260501183129 18 5 0.0 1.6 0.00 0.03 0.00 37 1009.4
20260501183055 18 9 0.0 1.6 0.00 0.03 0.00 36 1009.4
20260501183029 18 271 0.0 1.6 0.00 0.03 0.00 36 1009.4
20260501183023 18 271 0.0 9.7 0.00 0.03 0.00 36 1009.3
20260501182928 18 271 0.0 9.7 0.00 0.03 0.00 36 1009.5
20260501182828 18 264 0.0 9.7 0.00 0.03 0.00 40 1009.5
20260501182727 18 188 0.0 9.7 0.00 0.03 0.00 38 1009.5
20260501182626 18 198 0.0 9.7 0.00 0.03 0.00 38 1009.6
20260501182555 18 197 0.0 9.7 0.00 0.03 0.00 37 1009.6
20260501182539 18 264 0.0 9.7 0.00 0.03 0.00 37 1009.6
20260501182535 18 198 0.0 9.7 0.00 0.03 0.00 37 1009.6
20260501182523 18 247 0.0 9.7 0.00 0.03 0.00 37 1009.4
20260501182330 18 229 0.0 9.7 0.00 0.03 0.00 35 1009.5
20260501182326 18 286 0.0 9.7 0.00 0.03 0.00 37 1009.6
20260501182320 18 248 0.0 9.7 0.00 0.03 0.00 35 1009.5
20260501182313 18 249 0.0 9.7 0.00 0.03 0.00 36 1009.5
20260501182024 18 242 0.0 9.7 0.00 0.03 0.00 35 1009.5
20260501182022 18 229 8.0 8.0 0.00 0.03 0.00 35 1009.3
20260501181923 19 242 0.0 1.6 0.00 0.03 0.00 36 1009.5
20260501181826 19 203 0.0 1.6 0.00 0.03 0.00 37 1009.5
20260501181819 18 263 0.0 1.6 0.00 0.03 0.00 40 1009.5
20260501181723 18 187 0.0 1.6 0.00 0.03 0.00 37 1009.5
20260501181702 18 180 0.0 1.6 0.00 0.03 0.00 40 1009.5
20260501181522 18 252 0.0 0.0 0.00 0.03 0.00 40 1009.3
20260501181421 18 242 0.0 1.6 0.00 0.03 0.00 39 1009.5
20260501181321 18 262 0.0 1.6 0.00 0.03 0.00 38 1009.5
20260501181221 18 277 0.0 12.9 0.00 0.03 0.00 39 1009.4
20260501181119 18 261 0.0 12.9 0.00 0.03 0.00 40 1009.4
20260501181051 18 213 0.0 12.9 0.00 0.03 0.00 40 1009.4
20260501181031 18 256 0.0 12.9 0.00 0.03 0.00 37 1009.5
20260501181027 18 256 0.0 12.9 0.00 0.03 0.00 39 1009.4
20260501181022 18 256 0.0 12.9 0.00 0.03 0.00 39 1009.3
20260501180831 18 250 0.0 12.9 0.00 0.03 0.00 37 1009.5
20260501180826 18 248 0.0 12.9 0.00 0.03 0.00 38 1009.4
20260501180617 18 0 0.0 12.9 0.00 0.03 0.00 37 1009.5
20260501180551 18 255 0.0 12.9 0.00 0.03 0.00 37 1009.5
20260501180522 18 360 0.0 12.9 0.00 0.03 0.00 38 1009.4
20260501180516 18 0 0.0 12.9 0.00 0.03 0.00 38 1009.5
20260501180415 18 258 0.0 12.9 0.00 0.03 0.00 36 1009.6
20260501180315 18 244 0.0 12.9 0.00 0.03 0.00 37 1009.5
20260501180216 18 224 0.0 3.2 0.00 0.03 0.00 38 1009.5
20260501180115 18 275 0.0 3.2 0.00 0.03 0.00 40 1009.5
20260501180052 18 259 0.0 3.2 0.00 0.03 0.00 42 1009.3
20260501180049 18 221 0.0 3.2 0.00 0.03 0.00 40 1009.5
20260501180015 18 259 0.0 3.2 0.00 0.03 0.00 42 1009.5
20260501175914 18 243 0.0 0.0 0.00 0.03 0.00 42 1009.5
20260501175815 18 0 0.0 0.0 0.00 0.03 0.00 40 1009.5
20260501175714 18 250 0.0 1.6 0.00 0.03 0.00 39 1009.5
20260501175613 18 265 0.0 12.9 0.00 0.03 0.00 40 1009.5
20260501175548 18 252 0.0 12.9 0.00 0.03 0.00 43 1009.5
20260501175522 18 252 0.0 12.9 0.00 0.03 0.00 43 1009.4
20260501175513 18 250 0.0 12.9 0.00 0.03 0.00 43 1009.6
20260501175425 17 0 0.0 12.9 0.00 0.03 0.00 40 1009.5
20260501175421 18 237 0.0 12.9 0.00 0.03 0.00 42 1009.6
20260501175212 17 0 0.0 12.9 0.00 0.03 0.00 40 1009.5
20260501175130 18 0 0.0 12.9 0.00 0.03 0.00 37 1009.6
20260501175125 17 0 0.0 12.9 0.00 0.03 0.00 37 1009.5
20260501175117 17 0 0.0 12.9 0.00 0.03 0.00 37 1009.5
20260501175022 18 360 0.0 12.9 0.00 0.03 0.00 37 1009.5
20260501174936 17 0 0.0 12.9 0.00 0.03 0.00 41 1009.6
20260501174932 17 0 0.0 6.4 0.00 0.03 0.00 40 1009.6
20260501174926 17 0 0.0 6.4 0.00 0.03 0.00 39 1009.6
20260501174922 18 0 0.0 12.9 0.00 0.03 0.00 39 1009.7
20260501174913 17 0 0.0 12.9 0.00 0.03 0.00 40 1009.6
20260501174522 17 360 0.0 6.4 0.00 0.03 0.00 39 1009.5
20260501174508 17 0 0.0 6.4 0.00 0.03 0.00 39 1009.6
20260501174408 17 0 0.0 6.4 0.00 0.03 0.00 41 1009.6
20260501174307 17 0 0.0 6.4 0.00 0.03 0.00 40 1009.6
20260501174218 17 0 0.0 6.4 0.00 0.03 0.00 38 1009.6
20260501174214 17 0 0.0 6.4 0.00 0.03 0.00 38 1009.6
20260501174046 17 0 0.0 6.4 0.00 0.03 0.00 38 1009.6
20260501174022 17 360 0.0 6.4 0.00 0.03 0.00 37 1009.5
20260501174017 17 0 0.0 6.4 0.00 0.03 0.00 37 1009.6
20260501174013 17 0 0.0 6.4 0.00 0.03 0.00 37 1009.6
20260501173804 17 0 0.0 6.4 0.00 0.03 0.00 41 1009.6
20260501173703 17 0 0.0 6.4 0.00 0.03 0.00 41 1009.6
20260501173623 17 273 0.0 1.6 0.00 0.03 0.00 38 1009.6
20260501173617 17 0 0.0 1.6 0.00 0.03 0.00 39 1009.7
20260501173609 17 235 0.0 1.6 0.00 0.03 0.00 39 1009.7
20260501173522 17 307 0.0 1.6 0.00 0.03 0.00 38 1009.5
20260501173402 17 0 0.0 1.6 0.00 0.03 0.00 39 1009.6
20260501173328 17 0 0.0 6.4 0.00 0.03 0.00 39 1009.7
20260501173324 17 0 0.0 6.4 0.00 0.03 0.00 39 1009.6
20260501173319 17 0 0.0 6.4 0.00 0.03 0.00 38 1009.7